[{"header": {"dx": 0.06612293990616946, "dy": 0.0552356325346848, "nx": 98, "ny": 59, "la1": 35.046912555036876, "la2": 31.78801023549047, "lo1": -121.43107172385933, "lo2": -114.95102361305473, "refTime": "2026041700", "parameterCategory": 1, "parameterNumber": 2}, "data": [10.43, 10.72, 10.4, 10.69, 10.36, 10.65, 10.59, 10.59, 10.51, 10.15, 9.86, 9.48, 10.55, 9.75, 9.24, 8.9, 8.49, 8.05, 8.49, 8.05, 7.6, 7.94, 6.16, 2.6, -0.96, -2.8, -3.47, -3.47, -3.91, -2.99, -1.99, -0.88, 0.0, 0.0, 2.0, 2.95, 3.79, 4.11, 4.11, 5.21, 6.07, 7.2, 9.2, 10.16, 12.21, 13.23, 14.17, 12.98, 12.09, 11.84, 12.41, 12.49, 12.96, 12.96, 13.41, 13.86, 14.28, 14.28, 14.73, 14.22, 14.22, 14.11, 14.09, 13.49, 13.96, 14.4, 14.87, 15.31, 15.47, 15.57, 15.12, 14.73, 14.28, 13.84, 13.83, 13.39, 13.41, 12.96, 13.41, 12.52, 11.62, 11.15, 10.6, 10.14, 9.97, 9.4, 9.75, 8.56, 7.55, 6.26, 5.29, 4.54, 3.55, 3.4, 3.4, 4.42, 4.95, 6.11, 10.75, 10.43, 10.4, 10.69, 10.69, 10.65, 10.88, 10.59, 10.51, 10.15, 9.86, 10.66, 9.65, 9.2, 10.18, 9.11, 8.0, 8.85, 8.38, 6.94, 7.94, 7.45, 6.52, 3.2, 0.0, -2.8, -3.47, -3.47, -3.47, -2.8, -1.84, -1.99, -0.96, 0.0, 0.96, 2.76, 3.63, 3.63, 3.63, 4.43, 6.18, 7.56, 9.48, 10.04, 11.88, 13.35, 12.98, 11.61, 10.89, 11.05, 11.51, 12.04, 12.49, 12.52, 12.96, 13.86, 13.86, 14.28, 14.28, 14.22, 14.11, 13.65, 13.65, 13.49, 14.11, 14.55, 15.01, 15.56, 15.63, 15.63, 15.18, 14.3, 13.86, 13.41, 13.41, 13.41, 12.96, 12.96, 13.41, 12.52, 11.62, 11.15, 10.6, 10.14, 9.97, 9.4, 9.75, 8.56, 7.55, 6.26, 5.29, 4.54, 3.55, 3.4, 3.4, 4.42, 4.95, 6.11, 10.75, 10.43, 10.72, 10.69, 10.69, 11.23, 10.88, 11.16, 10.59, 10.51, 9.86, 8.65, 10.04, 9.42, 9.08, 8.82, 9.06, 8.63, 8.73, 8.6, 7.12, 8.06, 7.06, 4.02, 0.0, -2.47, -3.72, -3.72, -3.0, -2.64, -1.72, -1.72, -0.96, 0.0, 0.88, 3.0, 2.8, 3.72, 3.72, 4.95, 6.32, 8.3, 9.66, 10.28, 11.28, 12.15, 11.61, 11.05, 10.6, 10.7, 11.15, 11.6, 12.07, 12.52, 12.52, 13.39, 13.83, 14.22, 14.22, 14.11, 14.11, 13.65, 13.65, 13.65, 14.11, 14.67, 15.18, 15.65, 15.65, 15.2, 14.75, 13.86, 13.41, 12.96, 12.96, 12.52, 12.52, 12.96, 12.07, 12.07, 11.15, 10.25, 9.7, 9.7, 9.11, 8.4, 7.28, 6.65, 5.81, 5.26, 3.79, 2.64, 2.67, 3.4, 3.77, 4.95, 6.11, 6.82, 10.75, 10.75, 10.72, 10.72, 10.94, 11.23, 11.23, 11.16, 10.8, 10.51, 9.59, 8.73, 9.67, 9.27, 9.03, 9.36, 8.95, 9.13, 8.82, 8.99, 8.14, 8.6, 8.06, 5.58, 0.96, -1.49, -2.64, -2.8, -1.72, -1.84, -1.73, -1.73, -0.83, 0.0, 1.4, 2.66, 2.82, 4.14, 4.12, 4.83, 7.48, 8.85, 9.62, 9.66, 10.04, 10.43, 10.89, 10.6, 11.15, 11.59, 11.6, 12.07, 12.07, 12.49, 12.94, 13.32, 13.76, 14.11, 14.11, 14.09, 13.65, 13.65, 13.65, 14.22, 14.22, 14.73, 15.2, 15.2, 15.2, 14.75, 14.3, 12.96, 12.07, 11.62, 11.62, 12.07, 12.07, 12.07, 12.07, 11.15, 10.26, 10.25, 9.24, 8.33, 7.1, 5.81, 5.36, 5.26, 4.98, 4.54, 3.33, 2.51, 2.67, 3.4, 4.42, 5.37, 6.82, 6.44, 10.75, 10.75, 10.72, 10.99, 11.28, 10.94, 11.23, 11.23, 11.16, 10.23, 9.59, 8.78, 9.67, 9.43, 9.42, 9.42, 9.2, 9.03, 8.95, 8.8, 8.93, 8.0, 7.6, 7.44, 3.97, 0.0, -1.49, -1.4, 0.0, 0.0, 0.0, 0.0, 0.0, 0.0, 1.32, 2.54, 2.82, 4.96, 4.92, 5.51, 6.45, 7.9, 8.38, 8.67, 9.36, 9.75, 10.45, 10.89, 11.06, 11.59, 11.62, 12.07, 12.04, 11.96, 12.3, 12.74, 13.21, 13.49, 13.49, 13.65, 13.18, 13.18, 13.65, 13.77, 14.28, 14.28, 14.28, 13.84, 13.65, 13.21, 12.53, 11.61, 10.96, 11.06, 11.18, 10.28, 10.7, 10.7, 10.25, 10.7, 9.74, 9.7, 7.85, 5.36, 4.0, 3.93, 4.29, 4.54, 4.43, 3.72, 2.51, 2.51, 2.82, 3.55, 5.06, 6.18, 6.8, 6.21, 10.76, 10.75, 11.03, 10.99, 11.28, 11.28, 11.23, 11.23, 11.16, 10.59, 9.94, 8.78, 9.66, 9.43, 9.81, 9.42, 9.42, 9.42, 9.05, 8.68, 8.79, 6.64, 6.64, 5.59, 4.0, 0.0, 0.0, 0.0, 0.0, 0.0, 0.0, 0.84, 1.65, 2.67, 2.35, 1.52, 2.47, 4.58, 5.21, 4.01, 4.8, 5.72, 6.73, 8.05, 8.95, 9.33, 9.97, 10.14, 10.28, 10.73, 11.14, 11.06, 11.36, 11.61, 12.09, 12.58, 13.01, 13.01, 13.49, 13.18, 12.74, 12.86, 13.39, 13.83, 13.39, 13.32, 12.27, 11.37, 11.5, 11.6, 11.2, 11.09, 11.37, 11.8, 10.7, 9.83, 9.35, 9.35, 8.9, 9.7, 8.77, 6.65, 3.9, 1.13, 1.08, 2.2, 3.35, 3.91, 3.47, 2.64, 2.51, 2.82, 3.33, 4.29, 5.58, 6.57, 6.16, 4.43, 10.76, 10.75, 10.75, 10.99, 10.99, 11.28, 11.8, 11.44, 11.23, 10.59, 9.94, 8.78, 9.66, 9.67, 10.55, 9.42, 9.65, 9.81, 9.04, 8.94, 8.94, 8.65, 7.35, 5.36, 2.46, 0.0, 0.0, 0.0, 0.0, 0.0, 0.0, 1.84, 3.4, 5.24, 4.65, 3.11, 2.6, 1.8, 0.0, 0.0, 1.32, 2.66, 5.06, 6.52, 7.5, 7.6, 8.45, 9.24, 9.68, 10.47, 10.6, 9.9, 10.85, 11.37, 11.66, 12.58, 12.74, 12.74, 12.86, 12.86, 12.49, 12.96, 12.96, 12.49, 11.36, 10.55, 10.04, 9.67, 10.63, 11.2, 11.09, 11.37, 11.86, 12.49, 11.18, 9.83, 8.49, 8.05, 8.0, 5.29, 4.92, -0.0, -0.98, -0.0, -0.0, 0.88, 1.99, 2.99, 1.84, 1.98, 1.6, 2.29, 3.63, 4.54, 5.6, 5.94, 4.54, 2.76, 10.76, 10.75, 10.75, 11.33, 10.99, 11.28, 11.52, 11.8, 11.23, 10.94, 9.66, 8.5, 9.69, 9.76, 11.12, 9.3, 9.9, 10.66, 9.9, 9.67, 10.04, 10.4, 10.8, 10.23, 7.81, 3.91, 0.0, 0.0, 2.68, 0.0, 0.0, 1.4, 3.8, 5.31, 5.15, 5.15, 2.68, -1.2, -3.48, -3.13, 0.0, 3.2, 4.92, 5.2, 5.6, 6.52, 7.76, 8.82, 8.95, 9.6, 8.95, 9.9, 10.85, 11.18, 11.84, 11.96, 12.41, 12.49, 12.49, 12.52, 12.52, 12.07, 11.18, 9.24, 8.03, 8.6, 9.66, 9.67, 10.04, 10.55, 11.61, 11.96, 12.52, 12.52, 11.18, 9.39, 8.94, 8.05, 7.55, 4.02, -3.9, -3.84, -3.16, -1.8, -0.87, -0.0, -0.0, 1.08, -0.0, -0.0, 0.79, 2.41, 3.93, 4.98, 4.98, 3.93, 1.83, 1.84, 10.76, 10.76, 10.75, 11.03, 11.33, 11.33, 11.52, 11.52, 11.8, 10.88, 9.72, 8.85, 9.8, 9.59, 9.69, 9.69, 10.03, 10.29, 9.66, 9.4, 9.3, 10.55, 11.36, 12.33, 12.3, 11.03, 6.58, 3.48, 2.98, 4.92, 3.79, 2.0, 4.02, 4.92, 4.92, 5.81, 4.92, -0.0, -0.0, 1.7, 2.98, 4.11, 5.36, 5.72, 6.52, 6.07, 7.07, 8.15, 8.05, 8.43, 10.21, 9.49, 10.25, 10.89, 11.05, 11.15, 11.18, 11.18, 11.62, 11.6, 11.51, 9.39, 7.12, 6.04, 6.97, 8.85, 9.62, 9.66, 10.04, 10.85, 11.96, 12.52, 13.39, 12.43, 10.96, 9.7, 8.77, 8.0, 7.1, 3.9, -3.58, -5.75, -4.8, -4.15, -2.98, -2.21, -1.9, -1.4, -0.85, -0.0, 1.0, 1.9, 3.2, 4.0, 3.58, 2.0, 1.05, 0.88, 10.76, 10.76, 10.75, 11.03, 11.33, 11.33, 11.87, 11.87, 11.52, 11.23, 10.65, 10.09, 9.46, 8.85, 9.48, 9.17, 9.48, 9.02, 8.54, 8.24, 7.24, 8.24, 9.17, 10.59, 11.5, 11.03, 8.85, 6.58, 5.21, 6.07, 4.66, -0.0, -0.0, 1.41, 4.11, 6.07, 4.43, 1.72, 2.66, 4.75, 5.06, 5.77, 6.18, 6.8, 6.4, 6.21, 6.44, 7.2, 7.81, 8.43, 9.03, 9.36, 8.95, 9.24, 9.06, 9.24, 9.35, 9.83, 10.25, 10.6, 8.45, 5.58, 4.8, 5.4, 7.01, 7.9, 8.76, 8.53, 9.9, 11.18, 12.07, 12.88, 13.09, 12.01, 10.52, 9.08, 8.3, 7.63, 6.98, 5.29, 0.89, -5.36, -6.21, -5.31, -4.41, -4.02, -3.58, -3.13, -2.68, -1.79, 1.34, 1.26, 2.21, 2.23, 2.0, 0.96, 0.88, 0.88, 10.76, 10.76, 10.75, 11.03, 11.03, 11.33, 11.58, 11.87, 11.87, 11.52, 10.94, 10.4, 10.4, 10.36, 11.26, 10.24, 9.92, 6.67, 6.95, 6.95, 8.01, 7.93, 7.64, 7.78, 8.75, 8.0, 8.06, 6.26, 4.66, 4.46, 3.22, 1.05, 1.05, 2.2, 3.93, 5.6, 5.06, 4.14, 4.16, 6.11, 6.11, 6.82, 6.8, 7.63, 6.64, 5.21, 5.15, 5.82, 6.82, 6.79, 7.41, 7.35, 6.95, 6.64, 6.01, 6.45, 6.79, 7.63, 8.45, 6.45, 3.22, 2.51, 4.0, 5.55, 6.2, 6.4, 7.36, 8.18, 9.3, 10.45, 11.62, 12.18, 12.4, 11.6, 9.52, 7.95, 7.32, 7.42, 6.8, 5.26, 2.98, -0.0, -3.58, -6.66, -5.75, -4.92, -4.38, -3.95, -3.47, -2.54, -2.24, -1.58, -0.0, -0.0, -0.0, -0.0, 0.96, 1.05, 10.76, 10.76, 11.03, 11.03, 11.03, 11.63, 11.92, 11.92, 11.92, 11.87, 11.28, 10.99, 10.99, 10.99, 11.8, 11.99, 10.3, 8.96, 8.43, 8.43, 8.96, 9.2, 8.1, 10.62, 9.21, 9.03, 8.87, 4.02, 5.51, 4.46, 4.46, 3.79, 4.11, 4.54, 5.2, 5.21, 5.09, 5.37, 5.37, 6.11, 6.82, 6.82, 7.2, 7.21, 5.01, 3.79, 4.43, 4.02, 4.02, 4.29, 4.03, 4.96, 4.4, 4.07, 3.49, 3.49, 4.71, 6.01, 5.36, 1.58, -0.0, 2.35, 4.91, 4.76, 4.91, 5.67, 6.72, 7.45, 7.24, 9.03, 9.58, 10.63, 10.48, 8.93, 7.18, 6.53, 5.89, 6.39, 5.21, 3.47, 2.99, 4.11, 4.4, -6.02, -6.07, -5.59, -4.66, -3.83, -4.0, -3.6, -3.13, -2.68, -1.9, -1.13, -0.0, -0.0, -0.0, 0.88, 10.76, 10.76, 11.36, 11.36, 11.36, 11.63, 11.63, 11.92, 11.92, 11.92, 11.58, 10.99, 10.99, 11.33, 12.16, 12.93, 12.95, 12.33, 11.62, 11.39, 11.56, 12.18, 12.84, 12.47, 12.07, 12.07, 11.61, 11.49, 9.7, 7.51, 7.1, 6.16, 5.21, 5.58, 5.82, 5.82, 5.43, 5.77, 5.77, 6.18, 6.82, 7.35, 7.12, 5.75, 4.46, 2.73, 2.98, 2.6, 2.6, 2.8, 2.2, 2.51, 2.26, 1.49, 2.46, 2.58, 3.87, 6.64, 4.92, -0.0, -0.0, 2.41, 4.71, 4.0, 4.04, 3.95, 5.25, 5.79, 5.8, 7.24, 8.64, 7.63, 4.74, 2.69, 2.57, 3.32, 4.12, 3.72, 3.13, 2.98, 4.16, 5.06, 5.46, 5.58, -2.68, -4.57, -4.98, -3.84, -4.22, -3.83, -3.6, -3.58, -3.39, -2.23, -0.0, -0.0, -0.0, -0.0, 10.76, 10.76, 11.36, 11.36, 11.36, 11.96, 11.96, 11.96, 11.92, 11.92, 11.58, 11.58, 11.58, 11.58, 12.16, 13.01, 13.75, 13.99, 13.62, 13.51, 13.26, 13.88, 14.03, 14.65, 14.74, 14.75, 15.19, 14.7, 13.81, 11.57, 8.47, 8.01, 7.63, 6.28, 6.4, 6.8, 6.07, 6.18, 6.18, 6.8, 7.21, 7.12, 7.06, 5.6, 4.11, 2.98, 1.83, 2.4, 2.4, 2.6, 2.8, 2.6, 1.41, 1.41, 1.41, 1.6, 3.0, 8.06, 8.41, 2.51, -0.0, 3.53, 4.81, 4.81, 3.32, 3.32, 3.76, 3.07, 5.86, 7.36, 8.22, 1.99, -4.0, -2.64, -0.84, 0.0, 0.96, 3.13, 3.91, 5.1, 6.01, 6.44, 6.4, 6.28, 4.8, 2.68, -2.23, -4.11, -3.35, -3.48, -3.6, -3.58, -3.6, -2.23, -0.87, -0.0, -0.0, -0.0, 10.76, 10.76, 11.06, 11.06, 11.96, 11.96, 11.96, 11.96, 11.96, 11.92, 11.58, 11.58, 11.58, 11.58, 12.16, 12.73, 13.58, 14.03, 14.67, 14.73, 14.72, 14.9, 14.78, 14.93, 15.1, 15.19, 15.2, 14.74, 14.26, 12.85, 10.67, 8.03, 9.32, 8.41, 8.06, 7.2, 7.6, 6.18, 7.6, 6.7, 7.37, 7.21, 6.23, 4.43, 3.76, 2.6, 2.6, 2.6, 2.4, 2.4, 2.6, 2.98, 2.73, 3.16, 3.16, 3.48, 5.09, 7.15, 9.58, 7.27, 4.13, 4.8, 6.24, 5.1, 3.61, 3.7, 2.46, 2.69, 5.59, 7.9, 6.79, -0.0, -6.45, -5.58, -3.79, 1.79, 2.95, 5.59, 7.27, 7.68, 7.44, 7.63, 6.98, 6.66, 6.71, 6.45, 4.47, 0.0, -0.87, -1.4, -2.68, -2.53, -2.68, -1.49, -0.98, -0.0, -0.0, -0.0, 10.76, 11.06, 11.06, 11.38, 11.67, 11.96, 11.96, 11.96, 11.96, 11.92, 11.92, 11.58, 11.87, 12.45, 12.45, 12.73, 13.09, 13.58, 14.4, 15.19, 15.64, 15.63, 15.54, 15.71, 15.48, 15.6, 15.2, 15.2, 14.7, 14.2, 13.3, 11.57, 9.39, 10.73, 8.94, 7.45, 7.76, 7.35, 8.06, 7.5, 6.45, 5.6, 5.36, 4.29, 4.02, 3.0, 2.49, 2.8, 2.8, 2.8, 3.76, 4.11, 4.11, 4.09, 4.24, 4.47, 5.81, 8.05, 9.04, 8.49, 6.53, 7.56, 7.21, 6.01, 3.68, 3.68, 2.47, 4.02, 6.08, 8.0, 5.51, -0.99, -6.21, -5.26, -1.27, 2.67, 6.57, 8.76, 9.56, 9.04, 8.4, 7.85, 7.55, 7.6, 7.15, 7.1, 6.71, 5.73, 2.97, -0.0, -0.0, -1.83, -0.81, -0.0, -0.0, -0.0, -0.0, -0.0, 10.76, 11.06, 11.38, 11.38, 11.67, 11.67, 11.96, 11.96, 11.96, 11.92, 11.92, 11.58, 11.87, 12.45, 13.01, 13.01, 13.01, 13.58, 13.58, 14.82, 15.42, 15.44, 15.86, 15.71, 15.92, 16.05, 16.08, 16.09, 16.09, 15.64, 15.19, 13.86, 11.62, 12.07, 8.49, 8.46, 7.89, 8.06, 7.5, 7.01, 6.23, 4.54, 4.29, 3.47, 4.29, 3.68, 3.68, 3.68, 4.02, 4.74, 5.01, 5.36, 6.0, 5.6, 5.2, 5.64, 6.14, 7.63, 8.63, 8.93, 8.93, 9.04, 8.22, 6.52, 4.74, 2.76, 2.4, 3.79, 6.23, 7.21, 6.26, 0.0, -4.82, -0.0, 4.26, 6.84, 8.95, 10.81, 11.25, 10.66, 9.49, 8.56, 7.55, 7.15, 7.15, 6.71, 6.94, 3.58, -0.0, -1.13, -1.8, -2.53, -0.76, -0.0, 0.88, 1.55, 1.55, 1.55, 10.76, 11.38, 11.38, 11.38, 11.67, 11.67, 11.96, 11.96, 11.96, 11.92, 11.58, 11.58, 11.58, 12.45, 13.01, 13.01, 13.58, 13.58, 13.58, 13.75, 14.39, 15.23, 15.21, 15.54, 15.92, 16.05, 16.5, 16.05, 16.08, 16.05, 15.6, 14.74, 12.92, 11.11, 9.32, 9.8, 8.49, 8.49, 7.6, 6.58, 5.6, 4.43, 4.43, 4.02, 4.29, 4.29, 5.37, 5.37, 6.52, 6.13, 5.75, 5.01, 5.01, 5.36, 4.74, 4.74, 6.13, 6.52, 8.0, 8.63, 9.21, 9.21, 8.6, 6.13, 4.43, 2.53, 3.16, 5.2, 7.01, 8.41, 10.28, 9.39, 9.97, 10.63, 10.91, 10.9, 11.9, 12.51, 13.19, 11.75, 10.43, 9.06, 7.85, 6.51, 6.45, 5.81, 5.29, 2.84, 1.34, -1.4, -1.08, -1.7, -0.72, -0.0, 1.72, 2.8, 2.6, 2.6, 11.08, 11.38, 11.38, 11.38, 11.38, 11.67, 11.96, 11.96, 11.63, 11.92, 11.58, 11.58, 11.92, 12.16, 12.51, 14.5, 12.45, 13.01, 12.56, 13.09, 14.39, 15.31, 14.51, 15.52, 14.92, 15.74, 12.64, 14.87, 15.31, 13.54, 13.54, 13.21, 11.95, 11.04, 9.57, 9.11, 8.64, 8.33, 8.9, 8.05, 6.65, 6.0, 6.0, 5.36, 5.06, 5.06, 6.52, 6.52, 7.63, 6.52, 5.72, 4.02, 3.68, 3.68, 4.14, 5.31, 6.01, 6.32, 8.0, 8.54, 9.21, 9.11, 8.17, 5.2, 3.79, 3.35, 4.54, 5.6, 6.16, 8.85, 12.47, 15.31, 19.03, 19.31, 17.47, 15.35, 13.92, 13.76, 13.76, 12.86, 9.7, 7.89, 7.37, 6.0, 6.18, 6.8, 7.12, 7.21, 4.02, 2.3, 0.96, -0.0, -0.0, 1.4, 2.67, 3.55, 4.16, 4.16, 11.08, 11.38, 11.38, 11.38, 11.38, 11.67, 11.96, 11.96, 11.63, 11.92, 11.58, 11.92, 12.16, 12.51, 12.73, 13.01, 12.65, 11.87, 12.52, 12.89, 14.49, 14.03, 14.03, 14.49, 14.07, 14.16, 13.64, 11.41, 12.04, 11.81, 11.08, 10.81, 10.04, 9.23, 8.64, 8.48, 8.72, 9.21, 9.39, 8.79, 8.05, 7.13, 6.6, 5.57, 4.9, 6.64, 7.06, 7.63, 7.63, 6.52, 4.29, 2.66, 2.82, 3.6, 3.77, 4.83, 6.01, 6.68, 8.05, 9.63, 9.76, 8.85, 7.06, 4.8, 2.76, 3.11, 4.16, 5.77, 6.82, 8.82, 12.09, 16.48, 19.69, 20.3, 19.21, 16.99, 15.45, 14.21, 12.74, 11.6, 10.28, 8.49, 7.42, 6.8, 6.79, 7.32, 7.67, 8.24, 7.35, 6.06, 4.12, 2.57, 2.57, 2.57, 3.8, 5.1, 5.1, 5.1, 11.08, 11.08, 11.38, 11.38, 11.38, 11.38, 11.96, 11.63, 11.63, 11.92, 11.92, 11.92, 12.51, 12.51, 13.09, 13.09, 13.01, 11.87, 11.28, 12.84, 13.49, 12.45, 12.73, 13.01, 13.48, 14.15, 13.31, 12.51, 11.62, 10.42, 9.7, 9.11, 8.21, 7.87, 6.97, 6.79, 7.01, 7.81, 8.72, 8.96, 8.77, 8.03, 6.71, 5.79, 4.89, 7.01, 6.64, 7.63, 6.52, 4.29, 2.66, 2.66, 2.82, 2.82, 3.8, 4.26, 5.89, 6.64, 8.93, 9.03, 8.41, 7.15, 4.8, 2.6, 2.35, 3.6, 4.26, 5.1, 6.64, 8.42, 10.66, 14.3, 16.96, 17.42, 16.36, 15.52, 13.61, 13.49, 12.23, 11.37, 10.14, 8.49, 7.85, 6.7, 7.06, 7.41, 7.44, 7.32, 6.68, 5.94, 4.4, 4.25, 4.07, 4.28, 5.13, 5.94, 6.01, 6.01, 11.08, 11.08, 11.38, 11.38, 11.06, 11.36, 11.36, 11.63, 11.92, 11.92, 11.92, 12.51, 12.22, 12.51, 12.73, 13.09, 13.09, 12.45, 12.51, 12.73, 12.65, 12.37, 11.8, 12.09, 13.3, 14.29, 14.51, 14.03, 13.02, 11.56, 10.34, 9.54, 8.33, 7.87, 6.51, 5.99, 5.57, 6.1, 7.2, 7.81, 8.0, 7.4, 6.68, 5.81, 4.92, 4.89, 7.5, 6.64, 5.06, 2.66, 2.66, 2.66, 2.66, 2.82, 3.6, 4.71, 4.96, 6.53, 7.56, 7.6, 6.16, 4.22, 2.53, 1.63, 2.54, 3.32, 3.32, 4.83, 4.83, 6.24, 7.24, 10.43, 12.89, 10.45, 5.53, 7.59, 9.53, 10.15, 10.18, 10.15, 9.49, 8.49, 8.06, 7.41, 7.41, 6.73, 6.73, 6.73, 6.64, 5.94, 5.28, 5.18, 6.05, 5.86, 5.94, 6.32, 5.89, 5.89, 11.08, 11.08, 11.08, 11.06, 11.06, 11.36, 11.36, 11.36, 11.63, 11.92, 11.96, 12.22, 12.56, 12.51, 12.51, 13.09, 13.09, 12.73, 12.73, 13.09, 13.58, 13.2, 12.16, 11.72, 12.0, 13.36, 14.15, 14.73, 14.23, 13.26, 12.04, 10.81, 10.04, 9.23, 7.87, 7.06, 5.7, 5.51, 5.6, 6.28, 6.28, 6.72, 6.16, 5.34, 4.92, 4.92, 7.01, 5.6, 2.49, 1.4, 2.66, 2.66, 2.66, 2.66, 2.54, 3.8, 4.12, 4.4, 6.3, 5.37, 4.29, 3.0, 2.51, 2.69, 2.57, 3.21, 3.88, 4.34, 5.21, 4.96, 5.46, 6.3, 8.72, 4.46, 3.13, 2.53, 4.11, 6.06, 6.64, 7.96, 8.24, 8.49, 7.82, 7.41, 6.73, 6.73, 6.32, 6.18, 6.42, 7.08, 5.7, 6.79, 6.88, 6.95, 7.02, 6.68, 5.94, 5.94, 11.08, 11.08, 11.08, 11.06, 11.06, 11.36, 11.36, 11.36, 11.63, 11.96, 12.22, 12.56, 12.22, 12.51, 12.51, 13.09, 13.09, 13.09, 13.09, 13.09, 13.58, 13.48, 12.82, 12.54, 12.16, 12.27, 13.09, 13.87, 13.82, 13.74, 13.09, 12.46, 11.71, 10.94, 10.01, 9.23, 7.43, 6.04, 5.4, 5.47, 5.37, 5.81, 5.57, 5.33, 4.88, 4.44, 6.26, 4.11, 1.32, 1.4, 1.4, 2.49, 1.32, 1.4, 2.4, 2.54, 2.54, 1.75, 3.7, 4.66, 3.4, 3.4, 2.54, 2.57, 2.47, 3.36, 4.07, 5.45, 5.76, 5.89, 5.77, 11.57, 14.55, 14.42, 12.62, 10.21, 9.21, 8.94, 8.41, 7.47, 8.19, 8.46, 7.6, 6.08, 5.77, 5.69, 6.01, 5.76, 6.7, 7.36, 7.36, 7.52, 7.94, 7.95, 7.33, 7.02, 6.64, 6.64, 10.77, 10.77, 11.07, 10.76, 11.06, 11.06, 11.03, 11.36, 11.63, 11.96, 12.22, 12.22, 12.22, 12.51, 12.51, 13.09, 13.09, 13.09, 12.73, 13.09, 13.58, 13.58, 13.48, 13.2, 12.7, 12.54, 12.54, 12.95, 12.95, 13.31, 13.24, 13.02, 12.3, 11.99, 11.28, 10.81, 9.57, 8.21, 6.79, 5.6, 5.6, 5.4, 5.51, 5.24, 4.77, 4.77, 4.02, 2.68, 1.13, -0.0, -0.0, 1.32, 1.32, 1.4, 1.25, 2.54, 1.32, -0.0, 1.2, 3.52, 5.46, 4.26, 3.27, 2.57, 2.47, 3.36, 4.71, 5.64, 6.53, 7.2, 8.14, 10.7, 15.93, 16.54, 17.13, 16.71, 15.54, 14.4, 12.47, 9.36, 8.91, 7.56, 5.43, 3.72, 4.29, 4.95, 5.1, 5.76, 6.7, 7.44, 9.17, 8.9, 8.59, 8.79, 7.33, 6.64, 6.58, 6.58, 10.77, 10.77, 10.76, 10.76, 10.76, 10.76, 11.03, 11.36, 11.96, 11.96, 12.22, 12.22, 12.51, 12.51, 12.51, 13.09, 13.09, 12.73, 12.73, 13.09, 13.58, 13.58, 13.58, 13.48, 13.36, 13.09, 12.95, 12.42, 12.67, 12.28, 12.51, 12.51, 12.33, 12.11, 11.81, 11.56, 11.24, 10.34, 8.96, 7.51, 6.6, 5.81, 5.57, 5.24, 4.8, 4.8, 4.34, 3.58, 1.2, -0.0, -0.0, -0.0, -0.0, -0.0, 1.25, 1.32, -0.0, -0.0, -0.0, 2.69, 5.21, 5.46, 3.27, 2.57, 2.57, 4.2, 5.06, 5.64, 7.35, 8.05, 8.56, 11.11, 12.41, 15.13, 15.77, 15.9, 15.96, 14.93, 12.07, 9.7, 6.94, 3.9, 1.8, 2.2, 3.11, 5.24, 5.76, 6.42, 7.48, 7.52, 8.85, 9.84, 10.19, 8.58, 7.61, 7.68, 7.31, 7.31, 10.47, 10.47, 10.76, 10.76, 10.76, 10.45, 10.75, 11.36, 11.96, 11.96, 11.96, 12.22, 12.51, 12.51, 12.86, 13.09, 13.09, 12.73, 12.73, 12.73, 13.38, 13.58, 13.58, 13.48, 13.48, 13.36, 13.09, 12.95, 12.28, 12.28, 11.99, 11.6, 11.08, 11.41, 11.41, 11.62, 11.62, 11.39, 10.91, 10.42, 9.7, 8.48, 7.26, 5.57, 5.24, 5.09, 5.09, 4.44, 2.4, -0.0, -0.0, -0.59, -0.57, -0.0, -0.0, -0.0, -0.0, -0.0, 0.89, 1.73, 3.8, 4.12, 3.87, 2.47, 3.61, 4.34, 5.76, 7.35, 8.43, 8.95, 9.97, 10.7, 12.04, 13.18, 14.21, 14.92, 15.78, 13.84, 10.25, 6.0, 1.2, -1.2, -0.0, 2.4, 3.9, 5.21, 6.7, 8.22, 8.22, 8.6, 9.21, 10.79, 10.91, 9.66, 8.3, 7.96, 7.95, 7.95, 10.47, 10.47, 10.76, 10.76, 10.45, 10.45, 11.36, 11.36, 11.36, 11.96, 11.96, 11.96, 12.51, 12.51, 12.86, 13.09, 12.73, 12.51, 12.73, 12.73, 13.38, 13.01, 13.01, 13.01, 13.3, 13.2, 13.23, 13.09, 12.95, 12.79, 12.51, 11.6, 11.08, 11.31, 11.31, 11.31, 11.41, 11.62, 11.12, 10.91, 10.42, 9.21, 8.0, 7.26, 6.47, 5.88, 5.6, 5.09, 3.13, 0.65, -0.0, -0.51, -0.59, -0.57, -0.0, -0.0, -0.0, -0.0, 0.89, 1.84, 2.67, 3.45, 3.32, 4.07, 4.2, 5.98, 7.35, 7.81, 8.4, 9.49, 10.6, 11.15, 11.62, 11.62, 12.52, 14.75, 16.09, 14.3, 10.28, 6.2, 2.68, -0.0, 1.0, 3.9, 6.01, 7.27, 8.22, 9.96, 9.62, 9.66, 10.04, 10.66, 11.66, 10.19, 9.56, 8.93, 8.88, 8.88, 10.76, 10.76, 10.76, 10.45, 10.45, 10.45, 11.06, 11.06, 11.36, 11.96, 11.63, 11.96, 12.22, 12.22, 12.51, 12.51, 12.51, 12.51, 12.73, 12.73, 13.01, 13.01, 13.01, 12.65, 12.93, 12.56, 12.82, 13.09, 12.7, 12.95, 12.28, 12.11, 11.6, 11.41, 11.31, 11.31, 11.31, 11.31, 11.12, 11.12, 10.62, 9.92, 8.72, 8.82, 8.06, 6.04, 6.0, 5.29, 3.14, 0.99, -0.0, -0.0, -0.0, -0.59, -0.57, -0.0, -0.0, -0.0, -0.0, 0.89, 1.65, 2.54, 3.15, 4.56, 5.06, 6.83, 7.59, 7.76, 7.82, 8.56, 9.54, 11.05, 11.51, 12.07, 13.31, 14.55, 15.12, 15.2, 15.01, 13.21, 11.51, 5.72, 4.9, 5.49, 8.59, 9.21, 10.19, 10.91, 10.9, 10.66, 10.63, 10.55, 10.94, 10.73, 10.48, 9.84, 8.88, 8.88, 10.76, 10.76, 10.45, 10.45, 10.45, 10.76, 11.06, 11.06, 11.36, 11.36, 11.63, 11.96, 12.22, 12.22, 12.51, 12.51, 12.51, 12.51, 12.51, 12.73, 13.01, 13.01, 12.45, 12.73, 12.37, 12.37, 12.65, 12.65, 12.7, 12.95, 12.67, 12.28, 12.11, 11.6, 11.41, 11.41, 11.31, 11.31, 10.91, 11.12, 10.71, 10.21, 9.01, 8.22, 7.26, 8.77, 7.63, 4.12, 2.23, 0.89, 0.71, 0.54, -0.0, -0.0, -0.0, -0.0, -0.0, -0.0, -0.0, -0.0, 0.89, 2.4, 3.45, 4.12, 5.76, 6.53, 6.7, 7.56, 6.64, 6.82, 7.82, 9.6, 12.15, 14.21, 14.3, 14.66, 14.66, 14.3, 16.01, 17.27, 16.82, 11.05, 8.96, 8.15, 7.73, 10.81, 11.37, 11.69, 11.88, 11.3, 11.03, 11.18, 10.6, 11.5, 10.53, 10.27, 9.34, 9.34, 10.13, 10.13, 10.45, 10.45, 10.45, 10.76, 11.06, 11.06, 11.36, 11.36, 11.36, 11.63, 12.22, 12.22, 12.51, 12.51, 12.51, 12.51, 12.51, 12.8, 12.8, 12.45, 12.73, 12.37, 12.37, 12.37, 12.27, 12.27, 12.16, 12.42, 12.56, 12.67, 12.28, 12.11, 11.99, 11.82, 11.41, 11.41, 11.41, 10.91, 11.12, 10.21, 9.71, 8.91, 8.22, 9.24, 8.56, 5.08, 3.35, 2.24, 2.15, 2.5, 2.23, -0.0, -0.0, -0.0, -0.0, -0.0, -0.0, -0.0, 0.89, 2.67, 4.26, 5.1, 5.89, 5.89, 5.49, 6.24, 7.27, 7.56, 6.73, 8.38, 11.66, 15.9, 17.25, 15.65, 13.76, 12.42, 13.39, 15.65, 16.4, 15.37, 9.75, 9.2, 9.1, 9.35, 9.3, 12.22, 12.01, 11.71, 10.96, 10.62, 10.52, 10.96, 10.6, 10.52, 9.89, 9.89, 10.13, 10.13, 10.13, 10.45, 10.45, 10.76, 11.06, 11.06, 11.36, 11.36, 11.36, 11.63, 11.96, 12.22, 12.51, 12.51, 12.51, 12.51, 12.51, 12.45, 12.45, 12.45, 12.37, 12.37, 12.37, 12.0, 12.27, 11.72, 13.27, 11.88, 12.16, 12.42, 12.42, 12.28, 12.51, 12.11, 11.92, 11.82, 11.41, 11.41, 11.12, 10.62, 10.11, 9.42, 8.91, 8.72, 9.11, 8.33, 7.07, 5.81, 4.77, 3.98, 3.53, 2.8, 1.2, -0.0, -0.0, -0.0, -0.0, -0.0, 1.73, 2.67, 4.26, 5.3, 6.01, 6.01, 5.24, 6.32, 7.56, 8.73, 7.76, 8.03, 10.94, 15.02, 18.58, 18.96, 14.3, 11.62, 11.62, 13.39, 15.37, 15.47, 14.77, 10.91, 10.49, 10.18, 9.91, 9.6, 12.42, 11.53, 10.7, 10.26, 10.26, 10.63, 10.96, 10.49, 10.05, 10.05, 10.13, 10.13, 10.13, 10.13, 10.45, 10.76, 10.76, 11.06, 11.36, 11.36, 11.36, 11.63, 11.96, 11.96, 11.92, 12.16, 12.16, 12.16, 12.45, 12.45, 12.09, 12.09, 12.37, 12.37, 12.0, 11.8, 11.72, 11.72, 11.62, 12.89, 11.34, 11.62, 12.03, 12.03, 12.28, 12.28, 12.11, 12.33, 11.92, 11.41, 11.12, 10.71, 10.21, 9.71, 9.2, 9.42, 9.21, 9.57, 9.32, 8.05, 6.71, 5.36, 4.92, 4.44, 3.2, 1.61, 0.57, -0.0, 0.59, 0.58, 1.12, 2.54, 4.96, 4.83, 5.1, 5.1, 5.24, 5.69, 7.44, 8.93, 8.42, 8.67, 10.18, 13.65, 18.96, 20.91, 17.68, 14.21, 13.4, 14.47, 15.83, 16.16, 16.13, 15.37, 10.96, 10.14, 9.77, 9.82, 12.52, 11.62, 10.73, 9.83, 9.83, 10.28, 10.7, 10.6, 9.72, 9.72, 10.13, 10.13, 10.13, 10.13, 10.45, 10.45, 10.45, 10.45, 11.03, 11.36, 11.36, 11.63, 11.63, 11.63, 11.92, 11.92, 11.92, 11.92, 12.22, 11.87, 11.87, 12.16, 12.16, 12.37, 12.0, 11.8, 11.72, 11.72, 12.09, 11.62, 11.5, 11.34, 11.5, 11.88, 12.03, 12.28, 12.28, 12.51, 12.11, 11.92, 11.41, 11.12, 10.62, 10.21, 9.71, 9.71, 9.42, 9.27, 9.54, 8.77, 7.51, 6.23, 5.81, 5.81, 5.24, 3.72, 1.8, 0.61, 0.53, 1.23, 1.26, 2.46, 4.0, 4.96, 4.26, 4.83, 5.53, 6.01, 6.32, 8.37, 8.38, 9.86, 11.03, 12.86, 16.91, 19.26, 19.08, 17.64, 16.47, 17.04, 16.84, 16.48, 15.63, 14.73, 13.84, 9.39, 9.39, 8.94, 12.05, 11.6, 10.7, 10.25, 9.81, 10.26, 10.28, 10.26, 9.81, 9.81, 10.13, 10.13, 10.13, 10.13, 10.45, 10.45, 10.45, 10.75, 10.75, 11.03, 11.36, 11.36, 11.63, 11.63, 11.92, 11.92, 11.92, 11.92, 11.87, 11.87, 11.87, 11.8, 11.8, 11.8, 11.8, 11.8, 11.72, 11.72, 11.72, 11.9, 11.99, 11.88, 11.5, 11.5, 11.5, 11.88, 12.28, 12.28, 12.11, 12.33, 11.82, 11.41, 11.12, 10.71, 10.21, 10.42, 9.92, 9.51, 9.21, 8.91, 7.74, 6.94, 6.23, 6.26, 6.23, 5.57, 3.78, 1.73, 1.14, 1.76, 1.18, 2.28, 3.52, 4.66, 5.21, 5.72, 6.01, 6.01, 6.39, 7.41, 7.68, 9.66, 12.45, 13.49, 15.45, 16.69, 17.47, 17.89, 17.89, 18.06, 16.92, 15.65, 14.3, 13.41, 12.52, 8.94, 8.48, 11.98, 11.96, 11.52, 10.93, 10.02, 10.14, 10.18, 10.18, 10.26, 9.83, 9.83, 10.13, 10.13, 10.13, 10.13, 10.13, 10.45, 10.45, 10.75, 10.75, 11.03, 11.36, 11.36, 11.36, 11.33, 11.58, 11.58, 11.58, 11.87, 11.87, 11.87, 11.52, 11.8, 11.8, 11.8, 11.8, 12.09, 11.72, 11.72, 11.72, 11.72, 12.16, 12.16, 11.88, 11.5, 11.5, 11.5, 11.5, 11.75, 11.88, 12.11, 11.82, 11.41, 11.31, 11.12, 10.71, 10.21, 10.42, 9.92, 9.7, 9.39, 8.48, 7.26, 6.61, 6.68, 6.71, 6.68, 5.31, 3.12, 1.84, 1.76, 1.73, 2.4, 3.52, 4.12, 5.89, 7.21, 5.69, 6.01, 6.01, 6.32, 7.59, 8.38, 12.56, 14.42, 14.87, 14.55, 15.31, 16.05, 17.59, 18.2, 17.37, 15.18, 13.39, 12.52, 12.07, 12.07, 12.04, 11.6, 11.15, 10.7, 10.25, 10.25, 10.25, 10.25, 9.81, 10.28, 10.28, 10.28, 10.13, 10.13, 10.13, 10.13, 10.13, 10.13, 10.45, 10.75, 10.75, 10.75, 11.03, 11.03, 11.03, 11.33, 11.33, 11.58, 11.58, 11.87, 11.87, 11.52, 11.52, 11.8, 11.8, 11.8, 11.8, 12.09, 11.72, 11.72, 11.72, 11.72, 11.99, 11.99, 12.42, 12.03, 11.88, 11.5, 11.5, 11.75, 11.75, 11.99, 11.6, 11.6, 11.31, 12.04, 10.21, 10.21, 10.21, 10.42, 9.92, 9.7, 8.96, 8.21, 7.4, 7.13, 7.15, 7.15, 6.16, 4.07, 2.32, 2.29, 2.26, 2.4, 3.52, 4.5, 5.89, 6.64, 5.24, 5.1, 6.01, 6.32, 6.64, 8.03, 11.5, 15.02, 15.35, 13.65, 13.32, 15.18, 16.97, 16.97, 16.03, 14.68, 12.94, 12.05, 11.62, 11.6, 11.15, 10.7, 10.62, 10.62, 10.62, 10.62, 10.7, 10.7, 10.25, 9.81, 10.18, 10.28, 9.5, 9.5, 9.84, 10.13, 10.13, 9.84, 10.13, 10.43, 10.75, 10.75, 11.03, 10.75, 11.33, 11.33, 11.33, 11.33, 11.58, 11.87, 11.52, 11.52, 11.52, 11.8, 11.8, 11.8, 11.8, 11.44, 11.72, 11.72, 11.72, 11.72, 11.99, 11.99, 11.99, 12.42, 12.03, 12.03, 11.75, 11.75, 11.36, 11.36, 11.6, 11.6, 11.08, 11.75, 9.92, 10.21, 10.62, 10.21, 9.71, 9.51, 9.21, 9.07, 8.3, 7.51, 7.58, 7.15, 6.68, 4.55, 3.04, 2.8, 2.77, 2.26, 3.7, 4.26, 5.1, 4.96, 5.21, 5.1, 5.89, 5.89, 6.32, 7.27, 10.55, 13.83, 16.55, 15.52, 13.65, 14.3, 15.18, 14.75, 13.84, 12.88, 11.89, 10.96, 10.8, 11.28, 11.52, 11.45, 11.45, 11.45, 11.23, 11.4, 10.93, 10.6, 10.16, 9.72, 9.72, 10.18, 9.5, 9.5, 9.5, 9.84, 9.84, 9.84, 10.13, 10.43, 10.43, 10.75, 10.43, 10.72, 10.72, 10.99, 10.99, 10.99, 11.28, 11.28, 11.52, 11.52, 11.52, 11.8, 11.8, 11.8, 11.8, 11.44, 11.72, 11.72, 11.72, 11.72, 11.62, 11.62, 11.99, 12.16, 12.16, 12.42, 12.03, 11.75, 11.75, 11.75, 11.36, 11.22, 11.08, 10.4, 11.92, 10.21, 10.4, 9.88, 9.2, 9.01, 9.21, 8.91, 8.64, 7.87, 7.97, 7.51, 6.71, 4.11, 3.47, 3.47, 3.0, 2.96, 3.0, 4.96, 4.96, 4.96, 5.1, 6.01, 5.59, 5.89, 6.73, 7.41, 9.48, 11.5, 15.23, 15.74, 15.35, 13.92, 12.49, 11.15, 10.52, 10.8, 11.3, 11.47, 11.99, 12.4, 12.65, 12.37, 12.14, 12.3, 11.52, 11.52, 11.15, 10.7, 9.83, 9.83, 8.91, 9.72, 9.5, 9.5, 9.5, 9.5, 9.84, 9.84, 10.13, 10.13, 10.43, 10.43, 10.72, 10.72, 10.72, 10.99, 10.99, 10.99, 11.28, 11.28, 11.28, 11.28, 11.28, 11.58, 11.8, 11.8, 11.8, 11.44, 11.72, 11.72, 11.72, 11.35, 11.62, 11.62, 11.99, 11.99, 12.16, 12.42, 12.03, 12.03, 12.28, 12.28, 11.75, 11.36, 10.83, 10.3, 10.55, 12.15, 9.71, 9.2, 8.28, 8.51, 8.0, 8.22, 8.0, 8.17, 7.74, 7.4, 7.15, 4.94, 4.12, 4.12, 3.47, 2.77, 3.52, 3.8, 4.0, 4.96, 5.24, 6.32, 5.24, 6.73, 7.06, 7.44, 8.54, 10.0, 11.35, 15.07, 16.73, 16.72, 14.46, 12.23, 11.3, 11.94, 13.29, 13.74, 14.11, 14.07, 13.35, 13.05, 12.42, 12.05, 11.6, 11.18, 10.73, 10.28, 9.83, 9.39, 8.94, 8.94, 9.5, 9.5, 9.5, 9.5, 9.5, 10.13, 10.13, 10.13, 9.82, 10.12, 10.4, 10.4, 10.72, 10.72, 10.99, 11.28, 11.28, 11.28, 11.28, 11.28, 11.23, 11.23, 11.23, 11.44, 11.44, 11.44, 11.72, 11.72, 11.72, 11.35, 11.35, 11.99, 11.99, 11.99, 11.62, 11.62, 12.42, 12.42, 12.42, 12.03, 12.28, 11.36, 10.83, 10.68, 10.83, 11.31, 10.83, 9.63, 8.72, 8.22, 8.0, 8.0, 8.0, 7.74, 7.87, 8.03, 6.79, 5.75, 5.21, 4.71, 4.12, 3.22, 3.0, 3.8, 4.0, 4.96, 6.32, 6.01, 5.69, 6.73, 7.44, 7.44, 8.54, 8.05, 9.86, 11.88, 15.12, 19.09, 18.35, 16.48, 14.65, 15.2, 15.7, 15.87, 15.54, 15.13, 13.53, 12.87, 12.49, 12.07, 11.62, 11.18, 10.73, 10.28, 9.39, 8.94, 8.94, 8.94, 9.21, 9.21, 9.21, 9.21, 9.21, 9.5, 9.82, 9.82, 9.82, 10.12, 10.12, 10.4, 10.4, 10.4, 10.72, 11.28, 11.28, 11.28, 11.28, 11.23, 11.23, 11.23, 11.23, 11.23, 11.44, 11.44, 11.44, 11.72, 11.72, 11.72, 11.72, 11.99, 11.99, 11.62, 11.62, 11.62, 12.16, 12.16, 12.42, 12.42, 12.03, 11.75, 11.22, 11.08, 11.08, 11.08, 10.71, 10.6, 9.86, 9.11, 8.67, 8.77, 8.33, 8.42, 8.47, 8.49, 7.4, 6.3, 5.6, 4.65, 4.11, 3.47, 3.0, 3.52, 3.8, 4.96, 6.32, 6.32, 6.45, 7.15, 7.07, 6.79, 7.44, 8.43, 9.36, 10.43, 13.64, 17.35, 18.68, 18.1, 17.11, 16.8, 17.19, 17.33, 16.47, 15.47, 14.44, 13.33, 12.94, 12.52, 12.07, 11.62, 11.18, 10.28, 9.83, 8.94, 8.94, 8.94, 8.86, 8.86, 9.21, 9.21, 9.5, 9.5, 9.5, 9.82, 10.12, 10.12, 10.12, 10.12, 10.4, 10.4, 10.4, 10.69, 10.94, 10.94, 10.94, 11.23, 11.23, 11.23, 11.23, 11.23, 11.23, 11.44, 11.44, 11.72, 11.72, 11.72, 11.72, 11.72, 11.99, 11.62, 11.62, 11.99, 12.16, 12.16, 12.16, 12.42, 12.03, 11.75, 11.36, 11.08, 11.08, 10.91, 10.62, 10.42, 10.18, 9.91, 9.68, 9.77, 9.32, 9.37, 9.39, 8.47, 7.52, 6.51, 5.81, 5.08, 4.37, 4.12, 3.47, 2.77, 3.7, 4.96, 6.32, 6.11, 6.79, 6.79, 7.81, 6.79, 7.44, 8.43, 9.36, 9.9, 12.04, 15.0, 16.55, 16.69, 16.72, 17.69, 18.41, 18.09, 16.68, 15.53, 14.93, 14.23, 13.86, 12.52, 12.92, 10.62, 10.6, 10.25, 9.36, 8.94, 8.94, 8.94, 8.86, 8.86, 9.16, 9.5, 9.5, 9.5, 9.5, 9.5, 10.12, 10.12, 10.12, 10.12, 10.4, 10.4, 10.69, 10.69, 10.94, 10.94, 10.94, 10.94, 11.23, 11.23, 11.23, 11.23, 11.23, 11.23, 11.44, 11.72, 11.72, 11.72, 11.72, 11.72, 11.99, 11.99, 11.99, 11.99, 12.16, 12.16, 12.16, 12.42, 11.88, 11.5, 11.75, 11.6, 11.08, 10.91, 10.62, 10.21, 10.0, 10.34, 10.04, 10.13, 9.77, 9.82, 9.82, 8.49, 7.58, 7.06, 6.04, 5.81, 4.65, 4.71, 3.84, 3.42, 3.2, 4.96, 6.01, 5.77, 6.11, 6.79, 6.79, 6.73, 7.44, 8.43, 9.36, 9.9, 11.37, 13.49, 14.58, 15.03, 16.45, 18.39, 19.25, 17.58, 16.47, 15.96, 15.95, 15.2, 14.28, 13.67, 11.56, 10.18, 10.41, 9.54, 9.24, 8.77, 8.77, 8.77, 8.87, 8.87, 8.87, 8.87, 9.21, 9.21, 9.21, 9.21, 9.5, 9.8, 9.8, 10.12, 10.12, 10.4, 10.69, 10.69, 10.69, 10.94, 10.94, 11.23, 11.23, 11.23, 11.23, 11.23, 11.23, 11.23, 11.23, 11.44, 11.72, 11.72, 11.72, 11.72, 11.72, 11.72, 11.72, 12.16, 12.16, 12.16, 11.99, 11.88, 11.88, 11.5, 11.75, 11.6, 11.08, 10.91, 10.62, 10.42, 10.0, 10.12, 9.86, 10.01, 10.04, 10.14, 9.37, 8.49, 8.05, 7.13, 6.6, 5.81, 5.08, 4.37, 4.12, 3.45, 2.92, 4.96, 5.31, 5.03, 6.01, 5.69, 6.01, 7.15, 7.81, 8.95, 9.36, 9.9, 10.95, 12.72, 13.11, 12.86, 14.85, 17.99, 19.39, 17.47, 16.65, 15.96, 15.58, 14.75, 13.65, 11.5, 10.55, 10.0, 9.9, 9.08, 8.82, 8.14, 8.14, 8.14, 8.87, 8.87, 8.87, 8.87, 8.87, 9.21, 9.21, 9.21, 9.5, 9.8, 9.8, 9.8, 10.12, 10.4, 10.69, 10.69, 10.69, 10.69, 10.94, 11.23, 11.23, 11.23, 11.23, 11.23, 11.23, 11.23, 11.23, 11.44, 11.44, 11.72, 11.72, 11.72, 11.72, 11.72, 11.72, 11.9, 12.16, 11.99, 11.62, 11.88, 11.5, 11.5, 11.36, 11.47, 11.08, 10.91, 10.62, 10.42, 10.0, 10.12, 9.86, 9.86, 10.04, 10.01, 9.32, 8.47, 8.05, 7.15, 6.61, 6.04, 5.08, 4.65, 4.12, 3.22, 2.96, 3.52, 4.96, 4.71, 6.01, 6.11, 6.79, 7.44, 8.4, 8.95, 9.36, 9.9, 10.43, 11.5, 11.83, 11.88, 13.43, 15.99, 17.66, 17.38, 17.04, 15.76, 13.69, 11.62, 9.34, 8.93, 9.04, 8.68, 8.42, 8.43, 8.0, 7.76, 7.76, 7.76, 8.87, 8.87, 8.59, 8.59, 8.87, 8.87, 9.21, 9.5, 9.5, 9.5, 9.8, 9.8, 9.8, 10.42, 10.69, 10.69, 10.69, 10.69, 10.69, 11.23, 11.23, 11.23, 11.23, 11.23, 11.23, 11.23, 11.23, 11.23, 11.44, 11.44, 11.72, 12.09, 12.09, 12.09, 11.72, 11.72, 11.99, 11.62, 11.62, 11.5, 11.5, 11.22, 11.22, 11.08, 11.08, 10.91, 10.62, 10.21, 10.42, 10.18, 10.18, 10.34, 10.34, 10.01, 9.23, 8.86, 8.05, 7.6, 6.68, 6.16, 5.4, 5.08, 4.37, 3.49, 2.32, 3.27, 4.12, 4.12, 5.1, 6.01, 6.79, 7.2, 8.0, 8.4, 8.95, 9.42, 10.0, 10.04, 10.66, 11.28, 12.23, 13.43, 14.88, 16.12, 17.04, 15.96, 8.49, 5.75, 5.29, 5.34, 5.43, 5.69, 6.01, 6.11, 6.18, 6.21, 6.21, 6.21, 8.59, 8.23, 8.59, 8.59, 8.59, 8.87, 8.87, 9.5, 9.5, 9.5, 9.8, 9.8, 9.8, 10.09, 10.36, 10.69, 10.69, 10.69, 10.69, 11.23, 11.23, 11.23, 11.23, 11.23, 11.23, 11.23, 11.23, 11.23, 11.44, 11.44, 11.8, 11.8, 12.09, 12.09, 11.72, 11.72, 11.99, 11.62, 11.88, 11.5, 10.96, 11.22, 10.83, 11.08, 10.68, 10.91, 10.62, 10.62, 10.42, 10.42, 10.6, 10.18, 10.34, 9.57, 9.23, 8.86, 8.03, 7.6, 7.13, 6.6, 5.57, 5.08, 4.65, 3.49, 2.36, 1.65, 2.54, 3.63, 4.96, 5.89, 6.64, 6.73, 6.79, 8.0, 8.43, 8.42, 8.68, 9.04, 9.67, 11.02, 11.6, 11.75, 12.23, 14.39, 17.64, 13.33, 8.46, 5.86, 5.43, 4.8, 3.13, 1.74, 2.68, 3.79, 3.79, 4.6, 4.6, 4.6, 8.23, 8.23, 8.59, 8.59, 8.59, 8.59, 8.87, 9.19, 9.5, 9.5, 9.5, 9.8, 9.8, 10.09, 10.09, 10.36, 10.36, 10.69, 10.69, 10.99, 11.23, 11.23, 11.23, 11.23, 11.23, 11.23, 11.23, 11.23, 11.44, 11.44, 11.8, 11.8, 12.09, 12.09, 11.72, 11.72, 11.62, 11.62, 11.5, 11.34, 10.96, 10.83, 10.83, 10.55, 10.55, 10.8, 10.4, 10.62, 10.62, 10.83, 10.42, 10.6, 10.18, 9.57, 9.23, 8.86, 8.03, 7.6, 7.15, 6.68, 6.14, 5.31, 4.93, 4.07, 2.2, 1.16, 0.89, 2.54, 4.34, 5.21, 6.04, 6.53, 6.64, 6.32, 6.73, 7.35, 8.38, 8.68, 9.6, 10.55, 11.09, 11.09, 11.5, 14.15, 18.76, 15.18, 11.53, 9.58, 8.67, 6.79, 3.6, 1.34, 0.0, 1.4, 2.53, 3.35, 3.35, 3.35, 8.23, 8.23, 8.23, 8.59, 8.59, 8.87, 8.87, 8.87, 9.19, 9.5, 9.5, 9.8, 9.8, 10.09, 10.09, 10.09, 10.36, 10.36, 10.36, 10.65, 11.23, 11.23, 11.23, 11.23, 11.23, 11.23, 11.23, 11.23, 11.44, 11.44, 11.8, 11.8, 12.09, 12.09, 11.72, 11.72, 11.62, 11.07, 11.34, 10.96, 11.22, 10.83, 10.55, 10.55, 10.55, 10.8, 10.4, 10.62, 10.71, 10.71, 10.91, 10.91, 10.6, 9.43, 9.11, 8.77, 7.97, 7.58, 7.15, 6.71, 6.16, 5.51, 4.9, 4.55, 2.86, 1.08, -0.0, 0.89, 3.4, 5.1, 5.89, 6.53, 6.83, 6.53, 5.89, 6.95, 7.68, 8.42, 9.42, 9.9, 10.32, 10.85, 11.37, 18.7, 18.72, 16.03, 12.88, 11.15, 8.94, 6.26, 3.47, 1.26, 1.34, 0.0, 1.9, 3.39, 3.39, 3.39, 8.23, 8.23, 8.23, 8.59, 8.87, 8.87, 8.87, 8.87, 9.19, 9.19, 9.5, 9.5, 9.8, 10.09, 10.09, 10.09, 10.36, 10.36, 10.36, 10.65, 11.23, 11.23, 11.23, 11.23, 11.23, 11.23, 11.23, 11.23, 11.44, 11.44, 11.44, 11.44, 11.72, 11.72, 11.72, 11.72, 11.62, 11.07, 11.34, 10.96, 10.83, 10.68, 10.55, 10.55, 10.55, 10.8, 10.8, 10.91, 10.91, 11.12, 10.71, 10.91, 10.12, 9.43, 9.11, 8.77, 8.41, 7.58, 7.15, 6.71, 6.23, 5.7, 5.51, 4.8, 3.43, 1.11, -0.0, 0.57, 2.64, 4.95, 5.69, 6.32, 6.64, 6.53, 6.64, 6.64, 7.76, 8.06, 9.03, 8.95, 9.36, 10.32, 14.21, 17.87, 17.82, 14.75, 11.08, 8.01, 5.09, 2.97, 2.24, 1.58, 2.24, 2.24, 2.68, 3.13, 3.13, 3.13, 8.23, 8.23, 8.23, 8.23, 8.87, 8.87, 8.87, 8.87, 8.87, 9.19, 9.5, 9.5, 9.8, 10.09, 10.09, 10.09, 10.09, 10.36, 10.36, 10.69, 10.99, 11.23, 11.23, 11.23, 11.23, 11.23, 11.23, 11.23, 11.44, 11.44, 11.44, 11.44, 11.72, 11.72, 11.72, 11.35, 11.44, 11.07, 10.96, 10.96, 10.68, 10.68, 10.3, 10.55, 10.55, 10.55, 10.8, 10.91, 10.91, 10.91, 11.12, 10.71, 10.12, 9.27, 8.96, 8.64, 8.3, 7.97, 7.58, 7.15, 6.26, 5.78, 5.7, 5.09, 4.27, 2.23, 0.57, 0.51, 2.8, 4.58, 6.11, 5.69, 6.01, 6.32, 6.73, 7.15, 7.44, 8.05, 8.8, 8.95, 8.95, 9.49, 12.56, 16.03, 17.13, 12.98, 7.37, 1.9, -1.2, 0.0, 1.34, 1.79, 2.24, 2.68, 3.13, 3.13, 3.13, 3.13, 8.23, 8.23, 8.23, 8.23, 8.87, 8.87, 8.87, 8.87, 8.87, 9.19, 9.19, 9.19, 9.19, 10.09, 10.09, 10.09, 10.09, 10.36, 10.36, 10.69, 10.99, 11.23, 11.23, 11.23, 11.23, 11.23, 11.23, 11.23, 11.44, 11.44, 11.44, 11.44, 11.72, 11.72, 11.72, 11.16, 11.07, 11.07, 10.96, 10.41, 10.68, 10.68, 10.68, 10.3, 10.55, 10.55, 10.55, 10.55, 10.91, 10.91, 11.12, 10.62, 9.92, 9.7, 8.96, 8.64, 8.3, 7.97, 7.51, 7.13, 6.71, 5.78, 5.7, 5.7, 5.02, 3.43, 1.8, 1.11, 2.22, 4.58, 5.37, 5.24, 5.24, 6.01, 6.73, 6.79, 6.82, 8.17, 8.3, 8.72, 8.4, 9.9, 11.37, 13.91, 16.03, 14.21, 7.45, 1.34, -2.4, -1.58, 0.0, 1.34, 1.79, 2.68, 3.13, 3.58, 3.58, 3.58, 8.23, 8.23, 8.23, 8.23, 8.53, 8.87, 8.87, 8.87, 8.87, 8.87, 9.19, 9.19, 9.48, 9.48, 10.09, 10.09, 10.09, 10.36, 10.36, 10.36, 10.99, 11.23, 11.23, 10.88, 11.23, 11.23, 11.23, 11.23, 11.23, 11.44, 11.44, 11.44, 11.72, 11.72, 11.16, 11.44, 11.07, 11.07, 10.96, 10.41, 10.41, 10.68, 10.68, 10.68, 10.3, 10.55, 10.55, 10.55, 10.91, 10.91, 10.4, 10.42, 9.92, 9.7, 9.39, 8.48, 8.21, 7.87, 7.51, 7.13, 6.71, 6.26, 5.78, 5.7, 5.09, 4.27, 2.51, 1.8, 2.23, 3.47, 4.16, 4.42, 5.24, 6.01, 6.39, 6.79, 6.82, 7.35, 7.76, 8.3, 8.82, 9.75, 10.89, 12.74, 15.91, 16.82, 12.88, 7.15, 2.24, 1.34, 1.34, 1.26, 2.0, 2.68, 3.13, 3.13, 3.13, 3.13, 7.96, 7.96, 7.96, 8.24, 8.24, 8.24, 8.58, 8.87, 8.87, 8.87, 9.19, 9.19, 9.48, 9.48, 9.77, 10.09, 10.09, 10.09, 10.36, 10.36, 10.65, 10.65, 10.88, 10.88, 10.88, 11.23, 11.23, 11.23, 11.23, 11.44, 11.44, 11.44, 11.72, 11.16, 11.16, 11.07, 11.07, 10.7, 10.79, 10.79, 10.41, 10.41, 10.68, 10.68, 10.68, 10.3, 10.55, 10.55, 10.55, 10.8, 10.4, 10.42, 9.92, 9.7, 9.21, 8.91, 8.64, 8.3, 7.87, 7.51, 6.68, 6.26, 5.81, 5.78, 5.7, 5.09, 3.72, 2.51, 2.23, 2.99, 3.72, 4.58, 5.37, 5.24, 6.11, 6.45, 6.82, 6.82, 7.2, 8.3, 8.82, 9.97, 11.06, 12.49, 15.2, 17.42, 16.52, 12.94, 9.81, 7.01, 6.28, 6.0, 6.0, 5.6, 4.98, 4.57, 4.57, 4.57, 7.96, 7.96, 8.24, 8.24, 8.24, 8.24, 8.58, 8.58, 8.58, 8.87, 8.87, 9.48, 9.48, 9.48, 9.48, 9.77, 10.09, 10.09, 10.36, 10.36, 10.65, 10.65, 10.65, 10.88, 10.88, 10.88, 11.23, 11.23, 11.23, 11.44, 11.44, 11.72, 11.52, 11.16, 11.16, 11.07, 11.07, 10.51, 10.51, 10.79, 10.79, 10.96, 10.41, 10.68, 10.3, 10.3, 10.55, 10.55, 10.55, 10.4, 10.4, 10.11, 9.92, 9.7, 9.21, 8.96, 8.48, 8.17, 7.87, 7.51, 7.13, 6.71, 5.81, 5.78, 5.78, 5.24, 4.6, 3.35, 2.51, 2.23, 2.86, 4.74, 5.06, 5.06, 6.18, 6.82, 6.82, 7.35, 8.06, 8.3, 9.06, 10.14, 11.59, 12.96, 15.2, 16.99, 16.97, 15.13, 13.78, 12.33, 11.09, 10.27, 9.86, 9.9, 8.95, 8.3, 8.3, 8.3, 8.24, 8.24, 8.24, 8.24, 8.24, 8.24, 8.24, 8.58, 8.58, 8.58, 8.87, 8.87, 9.48, 9.48, 9.48, 9.77, 9.77, 10.09, 10.36, 10.36, 10.65, 10.65, 10.65, 10.88, 10.88, 10.88, 10.88, 11.23, 11.23, 11.23, 11.52, 11.52, 11.16, 11.16, 10.8, 11.07, 10.87, 10.51, 10.51, 10.51, 10.79, 10.96, 10.41, 10.68, 10.3, 10.3, 10.55, 10.55, 10.16, 10.4, 10.4, 9.71, 9.92, 9.51, 9.21, 8.79, 8.48, 8.64, 8.3, 7.4, 7.07, 6.68, 6.26, 5.81, 5.78, 5.34, 4.8, 4.11, 3.14, 2.84, 2.84, 3.91, 4.74, 5.93, 6.21, 6.8, 7.63, 8.06, 8.33, 8.77, 9.24, 10.25, 11.59, 12.96, 14.75, 16.52, 16.91, 15.91, 14.15, 13.09, 12.18, 11.52, 11.52, 11.21, 10.79, 10.27, 10.27, 10.27, 8.24, 8.24, 8.24, 8.24, 8.24, 8.24, 8.24, 8.58, 8.58, 8.87, 8.87, 8.87, 9.17, 9.48, 9.48, 9.48, 9.77, 10.09, 10.36, 10.65, 10.65, 10.65, 10.65, 10.88, 10.88, 10.88, 11.16, 11.52, 11.52, 11.52, 11.52, 11.16, 11.16, 11.16, 10.8, 10.87, 10.87, 10.51, 10.51, 10.51, 10.79, 10.79, 10.41, 10.68, 10.3, 10.3, 10.55, 10.16, 10.16, 10.4, 10.11, 9.71, 9.92, 9.51, 9.21, 9.21, 8.91, 8.48, 8.17, 7.87, 7.51, 7.13, 6.26, 5.81, 5.81, 5.36, 5.33, 4.6, 3.88, 3.35, 2.84, 2.86, 3.48, 6.52, 6.57, 7.37, 7.85, 8.33, 8.33, 8.77, 9.35, 10.25, 11.59, 12.94, 14.28, 16.01, 16.37, 15.78, 14.84, 13.49, 12.58, 12.09, 11.09, 11.52, 11.03, 10.95, 10.95, 10.95, 8.24, 8.24, 8.24, 8.24, 8.24, 8.24, 8.24, 8.58, 8.58, 8.87, 8.87, 8.87, 9.17, 9.48, 9.48, 9.48, 9.77, 10.09, 10.36, 10.65, 10.65, 10.65, 10.65, 10.88, 10.88, 10.88, 11.16, 11.52, 11.52, 11.52, 11.52, 11.16, 11.16, 11.16, 10.8, 10.87, 10.87, 10.51, 10.51, 10.51, 10.79, 10.79, 10.41, 10.68, 10.3, 10.3, 10.55, 10.16, 10.16, 10.4, 10.11, 9.71, 9.92, 9.51, 9.21, 9.21, 8.91, 8.48, 8.17, 7.87, 7.51, 7.13, 6.26, 5.81, 5.81, 5.36, 5.33, 4.6, 3.88, 3.35, 2.84, 2.86, 3.48, 6.52, 6.57, 7.37, 8.33, 8.33, 8.33, 8.77, 9.35, 10.25, 11.15, 12.49, 13.83, 15.12, 15.78, 16.05, 15.13, 14.21, 12.8, 12.37, 11.87, 11.87, 11.61, 11.61, 11.61, 11.61]}, {"header": {"dx": 0.06612293990616946, "dy": 0.0552356325346848, "nx": 98, "ny": 59, "la1": 35.046912555036876, "la2": 31.78801023549047, "lo1": -121.43107172385933, "lo2": -114.95102361305473, "refTime": "2026041700", "parameterCategory": 1, "parameterNumber": 3}, "data": [-10.43, -10.13, -9.82, -9.5, -9.21, -8.87, -8.23, -8.23, -7.59, -7.33, -6.96, -5.92, -4.87, -3.25, -1.68, -0.89, 0.0, 0.0, 0.0, 0.0, 0.0, -1.32, -2.64, -5.2, -5.73, -5.6, -5.21, -5.21, -4.89, -4.98, -4.98, -4.38, -4.02, -4.02, -4.0, -3.93, -3.79, -4.11, -4.11, -3.47, -3.79, -4.5, -4.6, -5.64, -5.55, -5.45, -5.51, -4.87, -3.23, -2.37, -1.65, -0.78, 0.0, 0.0, 0.0, 0.0, 0.79, 0.79, 0.82, 1.58, 1.58, 2.35, 2.49, 3.17, 3.1, 3.2, 3.13, 3.22, 2.32, 1.56, 1.59, 0.78, 0.79, 0.77, 0.81, 0.79, 0.0, 0.0, 0.0, 0.0, 0.0, -0.8, -1.63, -1.69, -2.49, -2.89, -3.25, -2.57, -0.84, 0.0, 0.88, 3.63, 6.21, 6.8, 6.8, 6.18, 5.77, 5.24, -10.75, -10.43, -9.82, -9.5, -9.5, -8.87, -8.59, -8.23, -7.59, -7.33, -6.96, -6.56, -5.63, -4.6, -3.39, -2.28, -0.89, -1.26, -1.4, -1.73, -1.32, -1.49, -3.91, -6.4, -5.81, -5.6, -5.21, -5.21, -5.21, -5.6, -5.51, -4.98, -4.82, -4.47, -4.82, -4.6, -4.54, -4.54, -4.54, -4.43, -4.42, -6.3, -5.92, -6.7, -7.13, -6.28, -4.87, -3.32, -2.51, -1.7, -1.64, -0.8, -0.83, 0.0, 0.0, 0.0, 0.0, 0.79, 0.79, 1.58, 2.35, 2.41, 2.41, 3.17, 2.35, 2.43, 2.37, 1.64, 0.78, 0.78, 0.8, 0.0, 0.0, 0.0, 0.0, 0.0, 0.0, 0.0, 0.0, 0.0, 0.0, -0.8, -1.63, -1.69, -2.49, -2.89, -3.25, -2.57, -0.84, 0.0, 0.88, 3.63, 6.21, 6.8, 6.8, 6.18, 5.77, 5.24, -10.75, -10.43, -10.13, -9.5, -9.5, -8.86, -8.59, -8.22, -8.23, -7.59, -6.96, -6.34, -5.86, -5.14, -3.78, -3.21, -2.47, -2.35, -1.94, -2.46, -2.67, -2.69, -2.82, -5.36, -7.15, -5.75, -5.58, -5.58, -6.0, -6.16, -6.02, -6.02, -5.73, -6.26, -5.29, -6.0, -5.6, -5.58, -5.58, -5.77, -6.32, -6.79, -7.24, -7.9, -7.25, -5.67, -3.32, -1.7, -1.63, -0.82, -0.8, -0.77, 0.0, 0.0, 0.0, 0.79, 0.81, 1.58, 1.58, 2.35, 2.35, 2.41, 2.41, 2.41, 2.35, 1.54, 0.8, 0.0, 0.0, 0.0, 0.0, 0.0, 0.0, 0.0, 0.0, 0.0, 0.0, 0.0, 0.0, 0.0, -0.8, -0.79, -1.62, -1.62, -2.28, -3.06, -2.18, -0.83, 0.0, 1.05, 3.79, 6.16, 7.12, 6.8, 6.6, 5.77, 5.24, 4.26, -10.75, -10.75, -10.13, -10.13, -9.21, -8.86, -8.86, -8.22, -7.96, -7.59, -7.33, -6.98, -6.45, -5.41, -4.92, -4.25, -4.07, -3.65, -3.21, -2.7, -2.44, -2.46, -2.69, -3.72, -5.73, -7.45, -6.16, -5.6, -6.02, -6.45, -6.94, -6.94, -6.65, -7.15, -7.01, -6.64, -7.06, -6.9, -7.42, -8.05, -8.31, -8.85, -8.01, -7.24, -5.86, -4.01, -2.51, -1.63, -0.8, -0.83, -0.72, 0.0, 0.0, 0.83, 0.81, 1.57, 1.62, 2.35, 2.35, 2.49, 2.41, 2.41, 2.41, 1.58, 1.58, 0.78, 0.0, 0.0, 0.0, 0.0, 0.0, 0.0, 0.0, 0.0, 0.0, 0.0, 0.0, 0.0, 0.0, -0.8, -0.73, -0.85, -1.68, -1.67, -0.89, 0.0, 0.0, 1.05, 1.99, 3.63, 5.82, 6.7, 7.12, 6.8, 6.18, 5.37, 4.26, 4.03, -10.75, -10.75, -10.13, -9.84, -9.5, -9.21, -8.86, -8.86, -8.22, -7.96, -7.33, -7.61, -6.45, -6.0, -5.14, -5.14, -4.6, -4.92, -4.07, -4.4, -5.1, -4.0, -3.8, -4.96, -5.95, -7.15, -7.45, -7.01, -7.15, -6.71, -7.15, -7.6, -7.6, -7.15, -7.94, -7.63, -7.06, -7.44, -9.03, -10.23, -9.67, -7.9, -6.7, -5.52, -4.25, -3.25, -2.41, -2.51, -1.58, -0.83, 0.0, 0.0, 0.8, 1.6, 2.31, 2.39, 2.33, 3.17, 3.17, 2.41, 2.47, 2.47, 2.41, 1.53, 0.79, 0.79, 0.79, 0.77, 2.41, 2.33, 3.34, 3.32, 2.19, 1.58, 0.0, 0.0, -0.82, -0.82, -0.79, -0.76, -1.39, -1.62, -1.75, 0.0, 2.0, 2.95, 3.22, 3.63, 4.43, 5.58, 6.7, 6.7, 6.57, 6.21, 5.06, 4.42, 3.4, 3.55, -11.36, -10.75, -10.45, -9.84, -9.5, -9.5, -8.86, -8.86, -8.22, -8.23, -7.6, -7.61, -7.24, -6.0, -5.35, -5.14, -5.14, -5.14, -5.76, -6.31, -6.15, -6.64, -6.64, -6.98, -8.0, -8.05, -7.6, -7.6, -7.6, -8.05, -7.15, -7.55, -7.42, -7.12, -6.28, -6.07, -5.75, -5.49, -7.81, -10.43, -9.6, -8.0, -5.89, -4.83, -4.07, -3.11, -2.49, -1.69, 0.0, 0.0, 0.86, 1.58, 2.44, 3.32, 3.23, 3.14, 3.25, 3.25, 3.17, 2.47, 2.39, 1.61, 0.79, 0.81, 0.79, 1.57, 2.45, 4.06, 4.93, 5.8, 5.6, 4.75, 4.06, 2.53, 0.82, 0.0, -0.85, -0.85, -0.81, -1.62, -1.75, -0.83, 0.98, 3.39, 4.34, 4.4, 4.19, 4.89, 5.21, 6.16, 6.7, 6.57, 5.82, 5.15, 3.72, 2.82, 2.64, 4.43, -11.36, -10.75, -10.75, -9.84, -9.84, -9.5, -8.85, -8.58, -8.86, -8.23, -7.6, -7.61, -7.24, -6.45, -5.86, -5.14, -5.63, -6.24, -6.57, -6.71, -6.71, -7.08, -6.53, -7.15, -8.6, -8.49, -8.05, -7.15, -6.71, -7.15, -8.05, -7.37, -6.8, -6.11, -5.43, -5.43, -5.2, -3.6, -4.02, -6.26, -7.94, -6.64, -5.06, -3.91, -1.25, 0.0, 0.85, 1.68, 1.76, 2.33, 3.53, 4.13, 4.17, 4.06, 3.11, 3.14, 2.39, 2.39, 1.61, 1.61, 0.78, 0.0, 0.0, 0.78, 2.44, 4.87, 5.86, 6.45, 5.72, 5.6, 4.75, 4.06, 2.22, 0.83, 0.0, 0.0, 0.0, 0.0, -0.89, -0.88, 0.0, 2.68, 3.9, 4.47, 4.47, 4.38, 4.98, 4.98, 5.51, 5.94, 5.59, 5.34, 4.54, 3.63, 2.8, 1.98, 3.63, 4.6, -11.36, -10.75, -10.75, -10.13, -9.84, -9.5, -9.22, -8.85, -8.86, -8.51, -7.96, -7.93, -7.93, -7.1, -6.67, -6.2, -6.09, -6.56, -6.09, -6.45, -5.86, -5.2, -5.4, -5.51, -5.21, -6.52, -5.81, -3.13, 0.0, -5.36, -7.6, -8.38, -7.6, -6.63, -4.29, -4.29, -3.58, 2.4, 3.48, -0.0, -2.68, -1.6, 0.0, 1.3, 2.8, 3.91, 3.45, 3.21, 4.07, 4.8, 4.07, 4.13, 4.17, 3.19, 2.37, 1.6, 1.65, 0.83, 0.83, 0.0, 0.0, 0.0, 0.0, 3.36, 6.42, 7.82, 7.24, 6.45, 5.86, 4.87, 3.32, 1.6, 0.0, 0.0, 0.0, 0.0, 0.0, 0.0, -0.84, 0.0, 0.98, 3.07, 3.16, 3.6, 3.47, 3.58, 3.58, 4.34, 4.47, 4.92, 3.95, 3.22, 2.95, 1.99, 1.99, 2.95, 4.57, 5.51, -11.36, -11.36, -10.75, -10.45, -10.13, -10.13, -9.22, -9.22, -8.85, -8.59, -8.58, -8.85, -9.8, -8.72, -7.93, -7.93, -8.21, -7.12, -7.24, -6.84, -6.97, -5.86, -5.25, -5.28, -4.1, -3.68, -1.32, 3.48, 4.46, 0.0, -3.79, -4.0, 0.0, 0.0, 0.0, 0.0, 0.0, 5.81, 5.81, 5.09, 4.46, 4.11, 4.02, 4.29, 3.91, 3.79, 4.71, 4.66, 4.83, 5.06, 4.54, 3.95, 3.16, 2.51, 1.7, 0.8, 0.0, 0.0, 0.0, -0.77, -1.64, 0.0, 2.67, 7.76, 9.3, 8.85, 8.01, 7.24, 5.86, 4.17, 1.6, 0.0, -0.79, -1.46, -2.19, -1.62, -1.75, -0.89, -0.89, -0.98, -0.0, 2.47, 2.4, 1.66, 1.98, 2.21, 1.9, 2.8, 2.54, 2.68, 2.0, 1.9, 1.6, 2.0, 2.68, 4.0, 5.26, 5.29, -11.36, -11.36, -10.75, -10.45, -10.13, -10.13, -9.49, -9.49, -9.22, -8.86, -8.87, -9.5, -8.87, -8.85, -9.48, -9.17, -9.48, -9.92, -9.76, -9.42, -9.66, -9.42, -9.17, -8.23, -6.9, -4.9, -1.26, 1.32, 3.47, 1.52, 1.55, 5.36, 5.81, 5.64, 4.11, 1.52, 4.43, 6.02, 6.64, 5.93, 5.06, 4.95, 4.42, 3.4, 3.2, 3.55, 4.03, 4.5, 5.21, 5.06, 4.92, 4.25, 4.07, 3.36, 2.47, 1.68, 0.85, 0.0, -0.79, -1.63, -0.85, 3.72, 9.6, 10.8, 10.9, 10.28, 9.56, 8.53, 6.09, 3.19, 0.0, -1.43, -2.91, -3.53, -3.76, -3.78, -3.32, -2.54, -1.55, -0.88, 0.0, -0.0, 0.78, 0.76, 0.73, -0.0, -0.0, -0.0, -0.0, -0.0, 0.0, 1.26, 2.21, 3.35, 4.0, 4.82, 5.29, 5.29, -11.36, -11.36, -10.75, -10.45, -10.45, -10.13, -9.84, -9.49, -9.49, -9.22, -9.21, -9.82, -9.82, -9.21, -9.53, -8.66, -9.02, -7.23, -6.95, -6.95, -9.62, -9.69, -9.34, -8.64, -7.65, -5.72, -2.69, 0.0, 1.55, 2.98, 4.84, 5.26, 5.26, 4.4, 2.95, 2.8, 5.06, 6.9, 5.82, 5.24, 5.24, 4.26, 3.4, 2.54, 2.66, 3.47, 4.29, 4.16, 4.26, 5.1, 5.76, 6.53, 6.95, 6.64, 6.01, 5.53, 5.1, 2.54, -0.85, -1.84, 4.29, 10.89, 12.8, 12.7, 12.39, 12.79, 12.27, 10.63, 6.97, 2.41, 0.0, -2.87, -5.11, -5.8, -5.86, -5.78, -5.13, -4.12, -3.4, -1.05, 1.98, 1.79, -0.0, -0.74, -0.82, -0.0, -0.88, -0.79, -0.87, -0.85, -0.0, 1.58, 2.68, 3.58, 4.47, 4.92, 4.82, 5.26, -11.36, -11.36, -10.45, -10.45, -10.45, -10.47, -10.13, -10.13, -10.13, -9.49, -9.5, -9.84, -9.84, -9.84, -8.85, -7.8, -6.29, -5.04, -5.06, -5.06, -5.04, -4.6, -3.78, -4.72, -3.45, -2.58, -1.11, 0.0, 1.84, 2.98, 2.98, 3.79, 4.11, 3.63, 2.6, 3.47, 4.36, 5.37, 5.37, 5.24, 4.26, 4.26, 3.6, 2.4, 3.76, 3.79, 4.43, 5.36, 5.36, 5.72, 6.44, 7.44, 8.8, 8.95, 8.72, 8.72, 8.63, 6.01, 0.0, 1.58, 10.73, 14.11, 13.91, 13.49, 13.91, 14.58, 15.11, 13.25, 9.66, 4.92, 2.21, -1.42, -5.99, -8.12, -7.97, -7.35, -6.73, -5.59, -3.47, 0.87, 4.98, 4.11, 2.2, -1.72, -1.52, -1.6, -1.55, -2.3, -2.0, -1.8, -0.0, -0.0, 1.9, 3.39, 4.47, 4.92, 4.92, 5.29, -11.36, -11.36, -10.76, -10.76, -10.76, -10.47, -10.47, -10.13, -10.13, -10.13, -9.84, -9.84, -9.84, -10.13, -9.84, -8.81, -7.06, -5.28, -4.65, -3.99, -3.47, -2.9, -1.75, -1.13, 0.0, 0.0, 0.55, 1.72, 1.62, 1.16, 0.89, 2.64, 3.47, 3.72, 3.33, 4.16, 4.65, 4.95, 4.95, 4.42, 4.26, 3.27, 2.67, 2.47, 2.98, 4.09, 4.46, 5.2, 5.2, 5.6, 5.86, 6.7, 6.79, 7.45, 8.6, 9.03, 9.04, 6.64, 0.0, 5.36, 12.96, 13.65, 12.56, 12.8, 13.72, 14.21, 14.26, 14.05, 11.6, 9.66, 7.78, 2.54, -4.74, -8.06, -8.56, -8.3, -7.42, -5.58, 0.0, 4.46, 5.82, 5.06, 3.9, 3.72, -0.0, -1.83, -2.99, -3.07, -2.53, -2.3, -1.8, -0.0, 1.13, 3.35, 4.02, 4.47, 4.47, 5.36, -11.36, -11.36, -10.76, -10.76, -10.76, -10.77, -10.77, -10.77, -10.13, -10.13, -9.84, -9.84, -9.84, -9.84, -9.84, -9.47, -8.37, -7.0, -5.67, -4.7, -4.03, -3.47, -2.81, -1.76, -0.57, 0.0, 0.58, 1.18, 1.15, 1.16, 0.56, 0.8, 2.54, 2.35, 3.2, 3.4, 3.79, 4.42, 4.42, 3.4, 2.4, 2.67, 2.82, 2.8, 4.11, 4.46, 4.57, 4.8, 4.8, 5.2, 5.6, 5.2, 5.64, 5.64, 5.64, 5.59, 6.0, 2.69, 1.2, 6.7, 12.07, 12.94, 12.04, 12.04, 11.61, 11.61, 10.52, 10.75, 10.55, 9.0, 8.22, 4.98, -2.0, -6.16, -7.55, -6.71, -4.82, 0.0, 4.89, 6.79, 6.01, 4.03, 3.2, 2.35, 2.4, 0.0, -3.35, -4.11, -4.19, -3.48, -1.8, -0.0, 1.8, 3.35, 3.47, 4.02, 4.47, 5.36, -11.36, -11.36, -11.06, -11.06, -10.77, -10.77, -10.77, -10.77, -10.77, -10.13, -9.84, -9.84, -9.84, -9.84, -9.84, -9.84, -9.45, -8.77, -7.63, -6.48, -5.3, -4.77, -3.55, -2.87, -1.74, -0.58, 0.0, 0.57, 1.14, 1.68, 1.12, 0.57, 1.16, 1.2, 2.69, 3.6, 3.8, 4.42, 3.8, 2.51, 1.84, 2.4, 2.49, 4.43, 5.01, 5.2, 5.2, 5.2, 4.8, 4.8, 5.2, 4.46, 4.09, 3.16, 3.16, 3.48, 1.7, 0.0, 2.21, 8.49, 9.9, 9.6, 8.73, 8.93, 9.63, 8.63, 8.6, 8.06, 6.98, 6.58, 5.1, 2.24, -1.84, -3.72, -3.79, 0.0, 3.93, 6.39, 7.27, 6.83, 4.96, 2.54, 1.55, 0.74, 0.0, 1.84, 0.0, -3.58, -3.47, -2.8, -0.0, 2.53, 3.58, 3.74, 3.9, 4.47, 5.36, 5.36, -11.36, -11.06, -11.06, -11.38, -11.08, -10.77, -10.77, -10.77, -10.77, -10.13, -10.13, -9.84, -9.49, -9.48, -9.48, -9.84, -10.11, -9.45, -9.0, -7.6, -6.62, -5.41, -4.18, -3.49, -2.29, -1.2, 0.0, 0.0, 1.18, 1.7, 1.73, 1.16, 0.0, 0.0, 0.0, 1.49, 3.45, 3.27, 2.69, 1.25, 1.84, 2.8, 4.02, 5.72, 5.36, 6.0, 6.23, 5.6, 5.6, 5.6, 5.01, 4.11, 4.11, 2.73, 1.41, 0.0, 0.0, 0.0, 3.87, 7.27, 7.35, 6.3, 6.01, 6.01, 6.13, 6.13, 5.75, 5.36, 4.56, 4.0, 1.84, -2.97, -3.55, -1.05, 3.82, 7.12, 9.04, 9.56, 8.76, 6.57, 4.2, 1.75, 0.84, 0.0, 0.0, -0.89, 0.0, -0.96, -0.99, 2.24, 3.58, 4.57, 4.85, 4.47, 4.47, 4.47, 4.92, 4.92, -11.36, -11.06, -11.38, -11.38, -11.08, -11.08, -10.77, -10.77, -10.77, -10.13, -10.13, -9.84, -9.49, -9.48, -9.47, -9.47, -9.47, -9.45, -9.45, -8.3, -7.12, -5.94, -4.7, -3.49, -2.36, -1.19, -0.57, 0.0, 0.0, 0.58, 0.58, 0.0, 0.0, 0.0, 0.0, 0.77, 1.58, 2.69, 1.25, 1.4, 2.49, 3.63, 5.72, 5.21, 5.72, 6.13, 6.13, 6.13, 5.36, 4.74, 3.76, 4.02, 3.0, 2.8, 2.6, 1.41, 1.23, 2.54, 3.7, 5.1, 5.1, 3.87, 3.52, 3.91, 4.74, 4.6, 4.8, 3.79, 2.49, 2.4, 0.0, -4.02, -0.96, 3.58, 6.82, 9.4, 10.58, 10.04, 8.84, 6.56, 3.95, 2.57, 0.84, 0.0, 0.0, 0.0, -1.73, 0.0, 2.24, 3.39, 3.6, 4.22, 5.31, 5.36, 5.29, 4.66, 4.66, 4.66, -11.36, -11.38, -11.38, -11.38, -11.08, -11.08, -10.77, -10.77, -10.77, -10.13, -9.84, -9.84, -9.84, -9.48, -9.47, -9.47, -9.45, -9.45, -9.45, -8.37, -7.2, -6.44, -5.26, -4.18, -2.36, -1.15, -1.18, -1.15, -0.6, -1.19, -1.2, -0.59, -1.12, -1.17, -1.16, -0.82, 0.0, 0.0, 0.0, 1.32, 2.8, 4.43, 4.43, 5.36, 5.72, 5.72, 5.37, 5.37, 3.91, 3.68, 3.45, 3.76, 3.76, 4.02, 4.74, 4.74, 3.68, 3.91, 4.0, 3.7, 3.45, 3.45, 2.46, 3.68, 4.43, 4.22, 3.16, 1.3, 1.4, 1.2, 0.0, 0.0, 2.49, 5.72, 7.79, 8.56, 7.93, 7.82, 6.6, 5.48, 4.01, 2.47, 1.75, 1.63, 1.84, 0.0, -0.88, -2.84, 0.0, 2.8, 4.34, 5.09, 5.77, 6.26, 6.02, 5.6, 5.2, 5.2, -11.67, -11.38, -11.38, -11.38, -11.38, -11.08, -10.77, -10.77, -10.47, -10.13, -9.84, -9.84, -10.13, -9.84, -10.13, -10.47, -9.48, -9.47, -8.56, -7.73, -7.2, -7.35, -6.96, -5.72, -4.71, -3.37, -2.87, -3.13, -3.22, -2.94, -2.94, -2.3, -1.71, -1.74, -2.25, -2.28, -2.3, -1.67, -0.81, 0.0, 0.83, 3.0, 3.0, 4.02, 5.06, 5.06, 3.91, 3.91, 2.54, 3.91, 4.29, 5.36, 6.13, 6.13, 6.9, 6.63, 6.01, 6.32, 5.72, 4.88, 3.45, 2.28, 2.33, 2.6, 3.79, 4.19, 3.63, 2.8, 2.64, 1.26, 1.13, 3.22, 4.96, 5.63, 5.56, 4.85, 3.28, 1.62, 1.62, 1.61, 1.62, 1.58, 1.84, 3.0, 4.42, 3.4, 2.67, 2.4, 0.0, 3.83, 5.73, 7.15, 7.6, 7.01, 7.12, 6.21, 5.82, 5.82, -11.67, -11.38, -11.38, -11.38, -11.38, -11.08, -10.77, -10.77, -10.47, -10.13, -9.84, -10.13, -9.84, -10.13, -9.84, -9.47, -9.2, -9.49, -9.39, -8.86, -8.86, -8.77, -8.77, -8.86, -7.82, -6.66, -5.62, -5.14, -4.81, -4.13, -3.5, -2.84, -2.23, -1.73, -2.3, -2.83, -3.49, -3.45, -2.93, -1.65, 0.0, 0.55, 1.2, 1.67, 2.18, 2.66, 2.82, 2.54, 2.54, 3.91, 5.72, 6.64, 7.06, 7.2, 6.6, 6.44, 7.21, 5.94, 4.83, 3.61, 1.22, 1.26, 1.18, 2.4, 4.6, 5.43, 5.82, 4.95, 4.26, 3.21, 3.23, 4.12, 4.1, 3.25, 0.8, 0.0, -2.44, -3.95, -2.39, -0.77, 0.0, 0.0, 1.65, 3.4, 5.1, 5.13, 4.6, 4.5, 3.27, 5.3, 7.42, 8.56, 8.56, 8.56, 7.6, 6.79, 6.79, 6.79, -11.67, -11.67, -11.38, -11.38, -11.38, -11.38, -10.77, -10.47, -10.47, -10.13, -10.13, -10.13, -10.13, -10.13, -10.11, -10.11, -9.47, -9.49, -9.5, -10.43, -10.32, -9.48, -9.84, -9.47, -8.79, -7.66, -6.36, -5.96, -4.65, -4.05, -3.42, -2.28, -2.19, -1.69, -1.61, -2.26, -2.92, -3.35, -3.49, -2.8, -1.75, -0.57, 0.0, 0.53, 0.54, 1.4, 2.66, 2.54, 3.91, 5.72, 6.64, 6.64, 7.06, 7.06, 7.6, 6.82, 6.73, 6.64, 5.1, 2.58, 1.2, 0.0, 2.4, 5.2, 6.28, 7.2, 6.82, 6.79, 6.64, 5.9, 6.56, 6.35, 5.65, 0.79, -2.45, -5.72, -8.59, -7.93, -6.52, -4.06, -1.69, 0.0, 1.75, 4.46, 5.49, 5.76, 4.96, 5.13, 5.94, 6.68, 8.8, 9.36, 8.95, 7.85, 7.32, 6.68, 6.01, 6.01, -11.67, -11.67, -11.38, -11.38, -11.06, -10.76, -10.76, -10.47, -10.13, -10.13, -10.13, -10.13, -10.47, -10.13, -9.84, -10.11, -10.11, -9.48, -10.13, -9.84, -9.2, -8.83, -8.85, -9.21, -9.07, -8.33, -6.96, -5.85, -4.74, -3.47, -2.87, -2.39, -1.67, -1.69, -1.63, -1.8, -1.67, -2.77, -3.6, -3.35, -2.86, -1.71, -0.56, 0.0, 0.0, 0.54, 1.25, 2.66, 5.06, 6.64, 6.64, 6.64, 6.64, 7.06, 7.2, 7.07, 7.44, 7.35, 6.3, 3.8, 2.64, 2.53, 4.22, 6.51, 7.63, 8.3, 8.3, 8.05, 8.05, 8.73, 9.66, 10.43, 8.06, 2.41, -6.45, -7.59, -8.79, -9.43, -8.73, -6.53, -3.95, 0.0, 2.69, 5.76, 5.76, 5.89, 5.89, 5.89, 6.64, 6.68, 8.3, 8.88, 8.32, 7.33, 6.68, 6.32, 6.73, 6.73, -11.67, -11.67, -11.67, -11.06, -11.06, -10.76, -10.76, -10.76, -10.47, -10.13, -10.77, -10.47, -10.76, -10.13, -10.13, -10.11, -10.11, -9.84, -9.84, -10.11, -9.45, -8.4, -7.53, -8.2, -8.57, -8.14, -7.66, -6.48, -5.34, -4.03, -3.44, -2.84, -2.23, -1.73, -1.69, -1.18, -1.14, -1.84, -2.8, -3.42, -3.42, -2.44, -1.12, -0.53, 0.0, 0.0, 1.4, 2.8, 6.23, 7.01, 6.64, 6.64, 6.64, 6.64, 7.63, 7.6, 7.42, 8.8, 7.56, 5.37, 5.15, 6.0, 6.7, 8.06, 8.56, 8.82, 8.55, 7.82, 7.81, 7.44, 8.18, 7.56, 3.49, 2.98, 0.0, -2.53, -4.11, -5.3, -6.64, -6.51, -4.5, 0.0, 4.34, 5.76, 5.89, 5.89, 6.32, 7.06, 8.03, 8.65, 8.55, 8.3, 7.64, 6.95, 6.24, 5.94, 6.68, 6.68, -11.67, -11.67, -11.67, -11.06, -11.06, -10.76, -10.76, -10.76, -10.47, -10.77, -10.47, -10.76, -10.47, -10.13, -10.13, -10.11, -10.11, -10.11, -10.11, -10.11, -9.45, -8.79, -8.16, -7.76, -7.53, -8.18, -7.73, -7.24, -6.33, -5.38, -4.55, -3.56, -2.93, -2.3, -2.35, -1.73, -1.59, -1.65, -2.16, -3.04, -3.22, -2.32, -1.67, -0.59, -0.61, -0.55, 0.0, 4.11, 6.58, 7.01, 7.01, 6.23, 6.58, 7.01, 7.21, 7.63, 7.63, 8.77, 8.63, 8.15, 6.8, 6.8, 7.63, 8.56, 9.06, 9.24, 8.95, 8.72, 7.41, 6.73, 4.95, 1.16, 2.43, 4.81, 5.73, 4.54, 3.45, 0.0, -1.2, -2.99, -2.23, 0.71, 3.8, 4.56, 4.95, 5.69, 6.01, 7.41, 8.38, 9.0, 9.0, 8.27, 7.22, 5.78, 5.86, 6.24, 6.64, 6.64, -11.96, -11.96, -11.68, -11.36, -11.06, -11.06, -10.45, -10.76, -10.47, -10.77, -10.47, -10.47, -10.47, -10.13, -10.13, -10.11, -10.11, -10.11, -9.84, -10.11, -9.45, -9.45, -8.79, -8.4, -7.5, -7.76, -7.76, -7.06, -7.06, -6.36, -5.42, -4.74, -4.1, -3.6, -2.82, -2.84, -2.25, -2.19, -2.26, -2.8, -2.8, -2.16, -1.84, -1.16, -1.19, -1.19, 0.0, 1.61, 3.39, 4.47, 4.47, 6.58, 6.58, 7.01, 7.5, 7.63, 7.94, 7.6, 8.41, 8.22, 8.18, 6.82, 7.35, 8.56, 9.06, 9.24, 8.63, 8.06, 7.35, 4.5, 2.44, 0.82, 2.28, 5.51, 6.52, 6.37, 5.65, 3.2, 1.13, -0.78, -0.74, 0.76, 3.11, 4.46, 5.15, 5.77, 6.79, 7.41, 8.38, 8.93, 9.17, 8.16, 7.15, 6.15, 5.86, 6.64, 7.31, 7.31, -11.96, -11.96, -11.36, -11.36, -11.36, -11.36, -10.45, -10.76, -10.77, -10.77, -10.47, -10.47, -10.13, -10.13, -10.13, -10.11, -10.11, -9.84, -9.84, -10.11, -9.45, -9.45, -9.45, -8.79, -8.14, -7.73, -7.06, -7.1, -6.64, -6.43, -5.96, -5.96, -5.28, -4.62, -4.13, -3.47, -2.96, -2.87, -2.8, -2.89, -2.75, -2.32, -1.67, -1.16, -1.07, -1.07, -1.08, 0.0, 2.4, 3.58, 4.02, 4.02, 6.71, 7.15, 7.5, 7.94, 7.6, 8.05, 8.05, 8.06, 7.81, 8.18, 7.35, 8.56, 8.56, 8.4, 8.43, 8.06, 6.53, 4.83, 2.57, 1.23, 1.65, 3.98, 6.31, 7.15, 5.81, 2.84, 0.0, -1.62, -1.73, 0.98, 3.6, 4.4, 5.43, 6.11, 7.41, 8.03, 8.31, 8.27, 8.85, 8.44, 7.28, 6.44, 6.23, 6.83, 6.58, 6.58, -11.63, -11.63, -11.36, -11.36, -11.36, -11.03, -10.75, -10.76, -10.77, -10.77, -10.77, -10.47, -10.13, -10.13, -10.41, -10.11, -10.11, -9.84, -9.84, -9.84, -9.73, -9.45, -9.45, -8.79, -8.79, -8.14, -7.73, -7.06, -6.43, -6.43, -6.0, -5.8, -5.83, -5.14, -5.14, -4.65, -4.65, -3.99, -4.02, -4.05, -3.42, -2.83, -2.23, -1.67, -1.16, -1.7, -1.7, -0.55, 1.2, 3.13, 3.58, 3.53, 3.98, 4.47, 6.71, 6.71, 7.15, 7.6, 7.1, 6.94, 7.6, 7.42, 9.04, 9.06, 9.63, 7.82, 7.41, 6.53, 5.06, 4.07, 2.49, 0.82, 0.8, 2.47, 3.95, 4.71, 3.16, 0.73, -0.79, -3.0, -2.4, 2.4, 4.02, 4.8, 5.46, 6.7, 8.38, 8.22, 8.22, 7.82, 7.09, 7.19, 7.79, 7.24, 6.79, 6.51, 5.78, 5.78, -11.63, -11.63, -11.36, -11.36, -11.03, -11.03, -10.76, -10.76, -10.76, -10.77, -10.77, -10.77, -10.13, -10.13, -10.41, -10.11, -9.84, -10.13, -9.84, -9.84, -9.73, -9.47, -9.47, -9.47, -9.07, -8.4, -7.48, -7.73, -7.06, -6.4, -5.96, -5.8, -5.83, -5.36, -5.36, -5.36, -5.14, -4.65, -4.68, -4.02, -4.05, -3.45, -2.86, -2.23, -1.76, -2.14, -2.8, -1.7, 0.0, 2.6, 3.13, 3.09, 3.53, 3.98, 4.47, 6.26, 6.71, 7.15, 7.1, 7.37, 7.12, 7.76, 8.3, 8.95, 8.4, 8.37, 6.53, 5.21, 4.2, 2.59, 1.63, 0.8, 0.0, 0.0, 0.0, 0.0, 0.0, 0.0, 0.0, -0.89, 0.0, 1.34, 2.49, 5.46, 6.01, 7.27, 8.22, 8.3, 8.01, 7.24, 6.7, 6.56, 7.49, 7.28, 6.62, 5.95, 5.18, 5.18, -11.36, -11.36, -11.36, -11.03, -11.03, -11.03, -11.06, -11.06, -10.76, -10.77, -10.47, -10.77, -10.47, -10.47, -10.13, -10.13, -10.13, -10.13, -9.84, -9.84, -9.47, -9.47, -9.47, -9.2, -8.81, -8.56, -8.16, -7.73, -7.5, -7.06, -6.43, -5.77, -5.8, -5.14, -5.36, -5.36, -5.36, -5.36, -4.68, -4.68, -4.72, -4.08, -3.49, -3.21, -2.69, -1.65, -3.0, -4.12, -2.51, 1.49, 2.68, 3.13, 3.13, 3.53, 3.98, 4.47, 6.71, 7.15, 6.71, 7.1, 7.42, 7.63, 7.89, 8.21, 8.43, 7.68, 7.59, 6.04, 4.34, 2.57, 2.39, 1.7, 1.64, 0.0, -1.66, -2.43, -1.59, 0.0, 2.37, 2.33, 1.64, 1.04, 2.18, 3.85, 7.15, 7.8, 8.01, 7.79, 7.01, 6.56, 5.72, 4.87, 5.1, 6.44, 5.99, 5.3, 5.18, 5.18, -11.36, -11.36, -11.03, -11.03, -11.03, -11.36, -11.06, -11.06, -10.76, -10.76, -10.47, -10.77, -10.47, -10.47, -10.13, -10.13, -10.13, -10.13, -10.13, -9.84, -9.47, -9.47, -9.48, -9.09, -8.83, -8.83, -8.43, -8.43, -7.5, -7.06, -6.64, -6.43, -5.77, -5.8, -5.14, -5.14, -5.36, -5.36, -5.17, -4.68, -4.51, -4.54, -3.94, -3.52, -2.23, -1.75, -2.54, -4.71, -3.35, 0.0, 2.12, 2.17, 2.68, 3.13, 3.58, 4.02, 4.02, 4.47, 6.71, 6.71, 7.1, 7.21, 7.76, 7.42, 7.41, 7.35, 8.38, 8.82, 6.64, 4.26, 4.34, 4.8, 5.67, 3.95, 0.0, -1.63, -1.63, 0.0, 1.6, 2.36, 2.4, 1.66, 2.8, 4.66, 6.08, 7.93, 7.11, 6.57, 5.2, 4.24, 3.68, 3.19, 3.53, 4.93, 4.92, 4.4, 4.31, 4.31, -11.33, -11.33, -11.03, -11.03, -11.03, -11.36, -11.06, -11.06, -10.76, -10.76, -10.76, -10.47, -10.47, -10.47, -10.13, -10.13, -10.13, -10.13, -10.13, -9.75, -9.75, -9.48, -9.09, -8.83, -8.83, -8.83, -8.18, -8.18, -7.53, -7.1, -6.85, -6.64, -6.43, -5.77, -6.0, -5.32, -5.14, -5.14, -5.14, -5.17, -4.68, -4.54, -4.57, -4.16, -3.52, -3.36, -2.57, -2.82, -2.23, 0.0, 1.61, 1.88, 1.49, 2.68, 3.13, 3.58, 4.02, 4.47, 4.92, 6.71, 7.1, 7.12, 6.82, 6.79, 6.73, 6.73, 7.06, 8.73, 8.49, 6.3, 5.89, 6.7, 7.49, 7.15, 4.7, 0.0, -1.62, -1.55, -0.79, 0.0, 2.14, 2.93, 3.25, 4.6, 5.69, 5.26, 4.38, 4.31, 3.53, 2.93, 2.19, 1.52, 2.1, 2.19, 3.53, 3.76, 2.82, 2.82, -11.33, -11.33, -11.33, -11.03, -11.03, -11.36, -11.06, -11.06, -10.76, -10.76, -10.76, -10.47, -10.77, -10.47, -10.13, -10.13, -10.13, -10.13, -10.13, -9.48, -9.48, -9.48, -8.83, -8.83, -8.83, -8.57, -8.18, -8.2, -8.29, -7.13, -7.53, -7.1, -7.1, -6.43, -5.96, -5.77, -5.11, -5.32, -5.14, -5.14, -4.68, -4.72, -4.76, -4.12, -4.16, -3.49, -2.28, -1.67, -1.09, 0.0, 1.19, 0.57, 0.59, 1.4, 2.4, 3.58, 4.02, 4.47, 5.36, 5.36, 6.94, 7.12, 6.82, 6.06, 6.01, 6.01, 6.11, 6.32, 6.3, 6.24, 6.04, 6.42, 6.08, 6.93, 6.46, 3.16, 0.0, 0.0, 0.0, 0.7, 2.93, 4.42, 5.17, 4.02, 3.86, 3.39, 2.75, 2.13, 1.55, 1.44, 0.71, 0.73, 0.73, 1.42, 2.19, 2.25, 2.15, 2.15, -11.33, -11.33, -11.33, -11.33, -11.03, -11.36, -11.36, -11.06, -10.76, -10.76, -10.76, -10.47, -10.77, -10.77, -10.13, -9.84, -9.84, -9.84, -9.48, -9.48, -9.21, -9.21, -8.83, -8.83, -8.57, -8.85, -8.2, -8.2, -7.55, -8.06, -7.16, -7.55, -6.88, -6.88, -6.43, -6.43, -5.77, -5.28, -5.11, -5.14, -4.68, -4.51, -4.54, -4.57, -4.6, -4.12, -3.45, -2.25, -1.16, 0.0, 0.0, 0.0, 0.0, 0.55, 1.6, 2.68, 3.98, 4.92, 5.33, 5.78, 6.16, 7.63, 7.44, 6.44, 6.79, 6.79, 6.11, 5.69, 4.96, 5.1, 5.9, 5.52, 3.39, 2.41, 3.16, 4.82, 4.82, 3.95, 3.53, 2.89, 2.88, 3.51, 3.67, 2.93, 2.19, 1.69, 1.09, 0.58, 0.0, 0.0, 0.0, 0.0, 0.0, 0.0, 0.71, 1.63, 1.5, 1.5, -11.33, -11.33, -11.33, -11.33, -11.03, -11.03, -11.03, -11.03, -10.45, -10.76, -10.76, -10.47, -10.47, -10.47, -10.13, -10.13, -10.13, -10.13, -9.77, -9.49, -9.49, -9.12, -9.12, -8.83, -8.57, -8.85, -8.2, -8.2, -8.46, -7.55, -6.9, -7.16, -6.9, -7.13, -6.88, -6.43, -6.43, -5.96, -5.77, -5.11, -5.14, -4.68, -4.72, -4.54, -4.57, -4.57, -4.12, -3.27, -2.39, -1.75, -1.16, -0.57, 0.0, 0.0, 1.16, 2.48, 3.6, 4.88, 5.34, 6.14, 8.85, 8.6, 8.0, 7.44, 6.82, 6.44, 6.45, 6.01, 6.32, 5.98, 6.7, 6.16, 3.68, 1.61, 1.61, 4.01, 6.36, 6.42, 5.73, 3.7, 2.2, 1.43, 0.71, 0.74, 0.73, 0.0, 0.0, 0.0, -0.75, -0.77, -0.76, -0.79, -0.7, -0.73, 0.0, 0.73, 0.7, 0.7, -11.33, -11.33, -11.33, -11.33, -11.03, -11.03, -11.03, -10.75, -10.75, -10.45, -10.76, -10.76, -10.47, -10.47, -10.13, -10.13, -10.13, -10.13, -9.49, -9.49, -9.49, -8.85, -8.85, -8.85, -8.85, -8.85, -8.2, -8.2, -8.2, -7.93, -7.8, -7.13, -6.9, -6.9, -6.9, -7.13, -6.43, -6.43, -5.77, -5.28, -5.32, -5.14, -4.68, -4.51, -4.54, -4.05, -4.08, -3.91, -3.45, -2.97, -2.21, -1.73, -0.57, 0.0, 0.57, 1.67, 3.15, 4.6, 5.7, 6.47, 7.06, 9.11, 8.22, 8.15, 7.81, 6.87, 6.01, 6.01, 5.59, 5.76, 6.14, 7.24, 4.98, 3.17, 2.44, 3.18, 5.56, 5.69, 5.69, 3.14, 1.47, 0.0, 0.0, 0.0, 0.0, 0.0, -0.53, -1.5, -1.6, -1.54, -2.34, -2.31, -1.69, -1.45, -1.45, -0.73, 0.0, 0.0, -11.33, -11.33, -11.33, -11.33, -11.33, -11.03, -11.03, -10.75, -10.75, -10.45, -10.76, -10.76, -10.76, -10.13, -9.84, -9.84, -9.84, -9.49, -9.49, -9.49, -9.22, -8.85, -8.85, -8.85, -8.85, -8.46, -8.2, -8.2, -8.2, -8.2, -7.53, -7.53, -7.13, -6.9, -6.9, -6.9, -6.9, -6.46, -6.22, -5.77, -5.32, -5.14, -5.36, -4.68, -4.51, -4.54, -4.05, -4.08, -3.42, -2.93, -2.83, -2.23, -1.1, -0.61, 0.0, 0.61, 2.36, 4.37, 5.51, 6.47, 6.94, 7.21, 8.22, 7.42, 6.73, 6.01, 5.69, 6.01, 6.01, 6.32, 7.59, 6.7, 6.85, 4.81, 3.13, 2.43, 3.22, 4.01, 3.2, 2.18, 1.45, 0.72, 0.7, 0.0, 0.0, 0.0, -0.8, -0.77, -0.8, -0.76, -0.79, -0.79, -0.85, -0.85, -0.7, 0.0, 0.0, 0.0, -11.33, -11.33, -11.33, -11.33, -11.33, -11.33, -11.03, -10.75, -10.75, -10.75, -10.45, -10.45, -10.45, -10.13, -10.13, -9.84, -9.84, -9.49, -9.49, -9.22, -9.22, -8.85, -8.85, -8.85, -8.85, -8.46, -8.2, -8.2, -8.2, -8.2, -7.8, -7.8, -7.1, -6.88, -7.13, -6.9, -6.9, -6.46, -6.46, -6.0, -5.8, -5.8, -5.36, -4.81, -4.54, -4.54, -4.54, -4.05, -4.08, -3.42, -2.8, -2.19, -1.71, -0.59, 0.0, 0.0, 1.12, 3.49, 5.81, 6.3, 6.79, 7.21, 8.22, 7.2, 6.73, 6.64, 6.11, 6.79, 6.01, 6.32, 6.64, 6.42, 6.9, 6.93, 4.85, 2.41, 1.57, 0.8, 0.77, 0.71, 1.39, 1.47, 0.72, 0.71, 0.0, 0.73, 0.74, 0.76, 1.52, 1.52, 1.52, 1.52, 0.76, 0.82, 0.79, 0.7, 1.45, 0.0, -11.28, -11.28, -10.99, -11.33, -11.33, -10.99, -10.72, -10.43, -10.75, -10.75, -10.45, -10.75, -10.13, -10.13, -10.13, -10.13, -9.84, -9.49, -9.22, -9.22, -9.22, -8.85, -8.85, -8.85, -8.85, -8.58, -8.2, -8.2, -8.2, -8.2, -7.8, -7.8, -7.8, -7.1, -6.88, -6.88, -6.46, -6.46, -6.25, -6.25, -5.8, -5.8, -5.83, -5.48, -4.08, -4.54, -4.72, -4.54, -4.57, -3.91, -3.45, -2.42, -1.78, -1.16, -0.58, 0.0, 0.56, 2.84, 5.47, 5.6, 6.1, 6.79, 8.63, 6.82, 6.79, 7.44, 7.81, 6.79, 6.73, 6.73, 6.32, 7.27, 5.86, 7.32, 7.88, 5.72, 2.41, 0.0, -0.72, 0.0, 0.73, 1.43, 2.1, 2.19, 2.88, 2.82, 3.6, 3.82, 3.82, 3.82, 2.99, 2.28, 2.34, 1.63, 1.56, 1.5, 1.5, 1.45, -11.28, -11.28, -11.28, -10.99, -10.99, -10.99, -10.72, -10.43, -10.43, -10.75, -10.43, -10.13, -10.13, -9.84, -9.84, -9.84, -9.5, -9.5, -9.22, -9.22, -9.22, -8.85, -8.85, -8.85, -8.85, -8.58, -8.2, -8.2, -8.2, -8.2, -7.55, -7.55, -7.8, -7.53, -7.53, -7.1, -6.88, -6.46, -6.46, -6.46, -6.25, -6.5, -5.83, -5.2, -5.11, -4.54, -5.2, -5.23, -4.6, -3.94, -3.45, -2.97, -2.3, -1.69, -1.14, -1.16, 0.0, 4.11, 5.21, 5.21, 6.0, 6.51, 6.0, 7.44, 7.44, 7.44, 6.79, 6.01, 6.39, 6.73, 5.89, 5.76, 5.92, 6.9, 9.37, 10.23, 7.27, 3.28, 0.78, 0.74, 2.1, 2.88, 4.24, 5.02, 4.94, 5.11, 4.46, 3.87, 3.04, 2.31, 1.54, 1.54, 0.8, 0.82, 0.0, 0.0, 0.74, 1.5, -11.28, -11.28, -11.28, -11.28, -10.99, -10.99, -10.72, -10.72, -10.43, -10.43, -10.13, -10.13, -10.13, -9.84, -9.84, -9.84, -9.5, -9.5, -9.5, -9.5, -9.5, -9.14, -8.85, -8.85, -8.85, -8.58, -8.2, -8.2, -8.2, -7.95, -7.55, -7.55, -7.8, -7.8, -7.53, -7.1, -6.88, -6.88, -6.43, -6.43, -6.46, -6.25, -6.27, -6.29, -5.86, -5.67, -4.57, -4.6, -4.42, -3.97, -4.0, -3.52, -2.86, -2.33, -2.21, -1.71, 0.0, 3.84, 4.71, 4.71, 5.21, 6.1, 8.22, 7.6, 8.0, 7.44, 6.11, 6.32, 6.11, 5.89, 6.18, 4.96, 4.88, 5.0, 7.95, 10.43, 11.95, 10.35, 8.03, 6.52, 6.36, 7.03, 7.38, 6.51, 5.64, 4.44, 3.71, 3.07, 1.55, 0.75, 0.77, 0.0, 0.0, 0.0, 0.0, 0.0, 0.0, 0.0, -11.28, -11.28, -11.28, -11.28, -11.28, -10.72, -10.72, -10.72, -10.4, -10.12, -9.82, -9.82, -10.13, -10.13, -9.84, -9.5, -9.5, -9.5, -9.5, -9.5, -8.86, -8.86, -8.86, -8.58, -8.58, -8.58, -8.2, -8.2, -8.2, -7.95, -7.95, -7.8, -7.8, -7.8, -7.55, -7.55, -7.1, -7.1, -7.1, -6.88, -6.43, -6.25, -6.27, -6.53, -6.27, -5.36, -4.21, -3.61, -3.49, -3.52, -2.86, -2.86, -2.86, -2.21, -1.69, -0.57, 2.26, 3.45, 3.47, 4.12, 4.71, 5.37, 6.0, 7.6, 8.0, 7.44, 6.32, 6.01, 5.69, 5.89, 4.96, 4.96, 4.88, 4.83, 6.16, 7.13, 9.55, 11.62, 11.97, 11.54, 10.25, 9.41, 8.56, 7.21, 5.65, 3.98, 3.01, 1.51, 0.78, 0.0, 0.0, 0.0, 0.0, 0.0, 0.0, 0.0, 0.0, 0.0, -10.94, -10.94, -10.94, -10.94, -10.94, -10.69, -10.4, -10.4, -10.4, -10.12, -10.12, -9.82, -9.82, -9.82, -10.13, -9.5, -9.5, -9.5, -9.5, -8.86, -8.86, -8.86, -8.86, -8.86, -8.58, -8.58, -8.58, -8.2, -8.2, -8.2, -8.2, -7.8, -7.8, -7.55, -7.55, -7.55, -7.53, -7.53, -7.1, -7.1, -6.88, -6.46, -6.5, -5.83, -5.83, -5.83, -4.51, -3.53, -2.9, -2.28, -2.17, -1.75, -1.67, -1.12, -0.56, 0.0, 1.71, 2.29, 2.8, 3.49, 4.11, 5.21, 6.0, 8.22, 7.6, 7.44, 6.32, 6.32, 5.53, 5.36, 4.71, 5.1, 4.96, 5.06, 4.25, 4.01, 5.62, 8.26, 10.56, 11.52, 11.41, 10.23, 8.6, 7.22, 5.73, 4.42, 3.04, 1.48, 0.76, 0.0, 0.0, 0.0, 0.0, 0.0, 0.0, 0.0, 0.0, 0.0, -11.23, -11.23, -10.94, -10.94, -10.69, -10.69, -10.69, -10.4, -10.12, -10.12, -10.12, -10.12, -9.82, -9.82, -9.82, -9.5, -9.21, -9.21, -9.21, -8.86, -8.86, -8.86, -8.86, -8.86, -8.86, -8.58, -8.58, -8.2, -8.2, -8.2, -8.2, -8.2, -7.8, -7.55, -7.55, -7.8, -7.53, -7.53, -7.53, -7.1, -6.88, -6.46, -6.25, -5.83, -5.83, -5.17, -4.72, -4.05, -3.39, -2.75, -1.71, -1.15, -1.1, -0.55, 0.0, 0.56, 1.07, 1.63, 2.32, 2.82, 3.83, 4.71, 5.21, 6.1, 8.63, 7.44, 6.32, 5.24, 5.1, 5.1, 5.21, 5.1, 4.96, 5.06, 4.25, 4.13, 4.81, 5.83, 7.88, 9.54, 10.35, 9.58, 8.1, 6.51, 5.08, 4.23, 2.84, 1.5, 0.0, 0.0, -1.08, -1.52, -1.63, -0.85, -0.78, 0.0, 0.0, 0.0, -11.23, -11.23, -10.99, -10.69, -10.69, -10.69, -10.69, -10.69, -10.12, -10.12, -10.12, -10.12, -9.82, -9.82, -9.5, -9.5, -9.21, -9.21, -9.21, -9.21, -8.86, -8.86, -8.86, -8.86, -8.86, -8.86, -8.58, -8.2, -8.2, -8.2, -8.2, -8.2, -7.8, -7.8, -7.8, -7.8, -7.53, -7.53, -7.53, -7.1, -7.13, -6.9, -6.46, -5.8, -5.83, -5.17, -4.72, -4.54, -3.89, -2.87, -2.23, -1.79, -1.15, -0.58, -0.58, 0.0, 0.54, 1.18, 1.65, 2.32, 3.49, 4.12, 4.94, 6.28, 6.4, 7.44, 6.01, 4.95, 5.24, 5.1, 5.1, 5.89, 4.96, 5.06, 4.25, 4.13, 4.06, 4.76, 5.67, 7.91, 9.05, 9.2, 7.22, 6.59, 5.73, 4.35, 2.17, 0.0, -0.79, -2.28, -3.47, -3.39, -2.6, -2.39, -1.68, -1.75, -1.75, -1.75, -10.65, -10.65, -10.65, -10.65, -10.36, -10.36, -10.36, -10.36, -10.09, -9.8, -9.8, -10.12, -10.12, -9.82, -9.5, -9.5, -9.5, -9.21, -9.21, -8.86, -8.86, -8.86, -8.86, -8.86, -8.86, -8.86, -8.86, -8.58, -8.2, -8.2, -8.2, -8.2, -8.2, -8.2, -8.2, -7.53, -7.53, -7.53, -7.8, -7.13, -7.13, -6.9, -6.46, -5.8, -5.83, -5.17, -4.72, -4.05, -3.89, -3.57, -2.9, -2.35, -2.23, -1.69, -0.59, 0.0, 0.0, 0.59, 1.2, 2.32, 2.82, 3.83, 4.71, 5.75, 7.01, 7.44, 6.63, 6.28, 6.01, 5.69, 6.01, 5.36, 5.21, 4.07, 4.25, 4.13, 3.91, 4.24, 5.73, 7.23, 8.25, 9.0, 8.08, 8.01, 6.52, 4.35, 1.42, 0.0, -2.41, -4.93, -4.87, -5.0, -4.13, -3.78, -3.21, -2.44, -2.44, -2.44, -10.65, -10.65, -10.65, -10.65, -10.65, -10.36, -10.36, -10.36, -10.09, -9.8, -9.8, -9.8, -10.12, -9.82, -9.5, -9.5, -9.5, -9.5, -9.21, -8.86, -8.86, -8.86, -8.86, -8.86, -8.86, -8.86, -8.86, -8.58, -8.58, -8.2, -8.2, -8.2, -8.2, -8.2, -8.2, -7.93, -7.53, -7.8, -7.55, -7.13, -6.9, -6.9, -6.25, -6.04, -5.83, -5.17, -4.72, -4.05, -3.89, -3.57, -2.9, -2.9, -2.23, -2.35, -1.16, -0.56, 0.0, 0.0, 1.1, 1.65, 2.82, 3.49, 4.71, 5.37, 6.51, 8.22, 7.44, 7.07, 6.01, 5.24, 5.1, 4.96, 4.2, 4.07, 4.25, 4.13, 4.01, 4.93, 6.31, 7.13, 7.11, 8.0, 9.63, 10.14, 8.89, 5.01, 2.16, 0.0, -4.31, -5.95, -6.57, -6.31, -5.9, -5.06, -4.0, -3.45, -3.45, -3.45, -10.65, -10.65, -10.3, -10.3, -10.65, -10.65, -10.36, -10.09, -10.09, -10.09, -9.8, -9.8, -9.8, -9.8, -9.5, -9.5, -9.5, -9.5, -9.5, -8.86, -8.86, -8.86, -8.86, -8.86, -8.86, -8.86, -8.86, -8.86, -8.58, -8.58, -8.2, -8.46, -8.46, -8.46, -8.2, -8.2, -7.8, -7.55, -7.55, -6.9, -6.9, -6.5, -6.5, -5.83, -5.83, -5.17, -4.72, -4.54, -4.05, -3.39, -3.39, -2.87, -2.87, -2.35, -1.73, -1.18, 0.0, 0.0, 0.56, 1.12, 2.16, 2.82, 3.83, 4.65, 5.81, 7.35, 7.42, 7.42, 6.79, 6.01, 5.1, 4.5, 4.0, 4.2, 4.07, 5.14, 5.0, 5.86, 6.56, 7.25, 6.52, 7.11, 9.09, 10.48, 8.89, 5.81, 0.0, -0.82, -0.88, -2.29, -4.65, -5.69, -6.01, -5.24, -4.42, -3.55, -3.55, -3.55, -10.3, -10.59, -10.3, -10.3, -10.3, -10.65, -10.65, -10.09, -10.09, -10.09, -9.8, -9.8, -9.8, -9.5, -9.21, -9.5, -9.5, -9.5, -9.5, -8.86, -8.86, -8.86, -8.86, -8.86, -8.86, -8.86, -8.86, -8.86, -8.58, -8.58, -8.85, -8.85, -8.46, -8.46, -8.2, -8.2, -7.8, -7.55, -7.13, -6.9, -6.92, -6.5, -6.27, -5.83, -5.62, -5.17, -4.72, -4.72, -4.05, -4.05, -3.53, -3.39, -2.87, -2.25, -1.73, -1.18, -0.57, 0.0, 0.59, 1.2, 1.67, 2.82, 3.49, 4.07, 5.31, 7.42, 7.63, 8.17, 7.44, 6.73, 6.64, 5.89, 5.1, 4.0, 5.06, 5.9, 6.31, 6.57, 6.45, 5.93, 5.8, 5.48, 6.52, 7.2, 6.42, 1.48, 0.77, 2.2, 3.11, 2.4, 0.0, -2.6, -3.58, -3.79, -3.79, -2.76, -2.76, -2.76, -10.59, -10.59, -10.3, -10.3, -10.3, -10.3, -10.06, -9.77, -10.09, -10.09, -10.09, -9.8, -9.8, -9.5, -9.5, -9.21, -9.21, -9.5, -9.5, -9.16, -8.86, -8.86, -8.86, -8.86, -8.86, -8.86, -8.86, -8.86, -8.58, -8.58, -8.85, -8.85, -8.46, -8.46, -8.2, -8.2, -7.55, -7.55, -6.9, -7.16, -6.92, -6.27, -6.27, -5.86, -5.86, -5.4, -5.2, -4.72, -4.72, -4.21, -4.05, -3.53, -3.39, -2.25, -1.73, -1.18, -0.57, 0.0, 0.0, 0.56, 1.23, 2.36, 3.08, 3.49, 4.4, 5.24, 7.1, 7.63, 7.82, 7.81, 7.76, 7.35, 6.64, 6.32, 5.89, 6.53, 6.7, 6.31, 4.8, 4.87, 4.75, 4.75, 4.93, 4.16, 0.72, 0.72, 1.44, 2.21, 2.17, 2.26, 1.8, 0.0, -2.24, -2.8, -2.53, -2.23, -2.23, -2.23, -10.59, -10.59, -10.59, -10.3, -10.3, -10.06, -10.06, -10.06, -9.77, -10.09, -10.09, -9.8, -9.8, -9.5, -9.5, -9.5, -9.21, -9.21, -9.21, -8.87, -8.86, -8.86, -8.86, -8.86, -8.86, -8.86, -8.86, -8.86, -8.58, -8.58, -8.85, -8.85, -8.46, -8.46, -8.2, -8.2, -7.55, -7.57, -7.16, -6.92, -6.5, -6.27, -5.86, -5.86, -5.86, -5.4, -5.2, -4.72, -4.51, -4.51, -4.02, -4.02, -3.53, -2.77, -2.28, -1.75, -1.14, -0.58, 0.0, 0.0, 1.12, 1.84, 2.18, 2.84, 3.43, 4.34, 6.71, 7.1, 6.8, 6.79, 6.73, 7.35, 7.68, 7.35, 6.73, 6.95, 6.83, 5.9, 5.14, 4.13, 4.3, 4.17, 4.06, 1.63, 1.44, 1.46, 1.43, 0.7, 0.0, 0.0, 0.87, 1.26, 0.0, -2.24, -1.9, -1.13, -1.13, -1.13, -10.59, -10.59, -10.59, -10.3, -10.06, -10.06, -10.06, -10.06, -9.77, -9.77, -10.09, -10.09, -9.8, -9.5, -9.5, -9.5, -9.21, -9.21, -9.21, -8.87, -8.86, -8.86, -8.86, -8.86, -8.86, -8.86, -8.86, -8.86, -8.58, -8.58, -8.58, -8.58, -8.2, -8.2, -8.2, -8.2, -7.55, -7.57, -7.16, -6.92, -6.27, -6.53, -5.86, -5.86, -5.86, -5.4, -5.4, -5.17, -5.17, -4.68, -4.51, -4.02, -3.57, -2.77, -2.28, -1.75, -1.2, -0.54, 0.0, 0.0, 0.57, 1.14, 1.84, 2.4, 2.86, 3.87, 4.02, 3.98, 6.16, 5.77, 5.69, 6.32, 6.64, 7.35, 6.64, 6.64, 6.04, 5.64, 4.92, 4.07, 4.25, 4.3, 3.95, 4.06, 4.28, 3.69, 1.48, -0.8, -1.7, -0.99, 0.0, 1.58, 0.0, 0.0, 0.0, 0.0, 0.0, 0.0, -10.59, -10.59, -10.59, -10.59, -10.06, -10.06, -10.06, -10.06, -10.06, -9.77, -10.09, -10.09, -9.8, -9.5, -9.5, -9.5, -9.5, -9.21, -9.21, -9.5, -9.16, -8.86, -8.86, -8.86, -8.86, -8.86, -8.86, -8.86, -8.58, -8.58, -8.58, -8.58, -8.2, -8.2, -8.2, -7.95, -7.83, -7.57, -6.92, -6.92, -6.53, -6.53, -6.29, -5.86, -5.86, -5.86, -5.4, -5.17, -5.17, -5.17, -4.68, -4.51, -3.57, -3.27, -2.8, -2.3, -1.78, -1.14, -0.58, 0.0, 0.0, 0.58, 1.14, 1.7, 2.44, 3.35, 3.98, 3.54, 5.6, 5.49, 5.24, 5.69, 6.01, 6.32, 5.89, 5.36, 4.96, 4.83, 4.4, 4.07, 4.07, 3.95, 4.71, 5.61, 6.52, 4.87, 1.84, -1.9, -2.4, -1.79, 0.0, 0.0, 0.0, 0.0, 0.0, 0.0, 0.0, 0.0, -10.59, -10.59, -10.59, -10.59, -10.06, -10.06, -10.06, -10.06, -10.06, -9.77, -9.77, -9.77, -9.77, -9.5, -9.5, -9.5, -9.5, -9.21, -9.21, -9.5, -9.16, -8.86, -8.86, -8.86, -8.86, -8.86, -8.86, -8.86, -8.58, -8.58, -8.58, -8.58, -8.2, -8.2, -8.2, -8.22, -7.57, -7.57, -6.92, -6.94, -6.53, -6.53, -6.53, -6.29, -5.86, -5.86, -5.86, -5.86, -5.17, -5.17, -4.68, -4.72, -4.08, -3.42, -2.8, -2.3, -1.78, -1.14, -1.16, -0.59, 0.0, 0.58, 1.14, 1.14, 1.88, 2.86, 3.6, 3.87, 3.88, 5.49, 5.37, 6.11, 6.11, 6.01, 5.89, 5.1, 4.26, 3.63, 3.32, 3.49, 4.2, 4.13, 4.06, 4.91, 5.61, 3.95, 1.49, 0.0, -1.2, -1.58, -1.79, 0.0, 0.0, 0.0, 0.0, 0.0, 0.0, 0.0, -10.59, -10.59, -10.59, -10.59, -10.35, -10.06, -10.06, -10.06, -10.06, -10.06, -9.77, -9.77, -9.48, -9.48, -9.5, -9.5, -9.5, -9.21, -9.21, -9.21, -9.16, -8.86, -8.86, -8.59, -8.86, -8.86, -8.86, -8.86, -8.86, -8.58, -8.58, -8.58, -8.2, -8.2, -8.22, -7.83, -7.57, -7.57, -6.92, -6.94, -6.94, -6.53, -6.53, -6.53, -6.29, -5.86, -5.86, -5.86, -5.17, -5.17, -5.2, -4.05, -4.08, -3.42, -2.93, -2.83, -2.19, -1.69, -1.16, -0.55, 0.0, 0.0, 0.58, 1.14, 1.7, 2.44, 3.14, 3.6, 3.35, 5.21, 5.82, 6.18, 6.11, 6.01, 5.59, 5.1, 4.26, 3.27, 3.45, 3.32, 3.21, 3.25, 2.51, 2.39, 2.39, 2.4, 1.43, 0.0, 0.0, 0.0, 0.0, 1.26, 1.0, 0.0, 0.0, 0.0, 0.0, 0.0, -10.23, -10.23, -10.23, -10.01, -10.01, -10.01, -9.72, -10.06, -10.06, -10.06, -9.77, -9.77, -9.48, -9.48, -9.19, -9.5, -9.5, -9.5, -9.21, -9.21, -8.87, -8.87, -8.59, -8.59, -8.59, -8.86, -8.86, -8.86, -8.86, -8.58, -8.58, -8.58, -8.2, -8.22, -8.22, -7.57, -7.57, -7.32, -7.19, -7.19, -6.94, -6.94, -6.53, -6.53, -6.53, -6.29, -5.86, -5.86, -5.86, -5.4, -5.2, -4.05, -4.08, -3.42, -3.45, -2.97, -2.3, -1.78, -1.69, -1.16, -0.56, 0.0, 0.0, 0.58, 1.14, 1.7, 2.48, 3.14, 3.35, 4.98, 5.58, 5.49, 5.37, 6.11, 5.24, 5.53, 4.26, 4.26, 3.6, 3.32, 3.21, 2.49, 1.58, 0.78, 0.0, 0.79, 0.83, 0.72, 0.75, 1.4, 2.35, 3.0, 3.0, 2.8, 1.99, 1.83, 1.83, 1.83, -10.23, -10.23, -10.01, -10.01, -10.01, -10.01, -9.72, -9.72, -9.72, -10.06, -10.06, -9.48, -9.48, -9.48, -9.48, -9.19, -9.5, -9.5, -9.21, -9.21, -8.87, -8.87, -8.87, -8.59, -8.59, -8.59, -8.86, -8.86, -8.86, -8.58, -8.58, -8.2, -8.49, -8.22, -8.22, -7.57, -7.57, -7.59, -7.59, -7.19, -7.19, -6.92, -6.94, -6.53, -6.29, -6.29, -5.86, -5.86, -5.86, -5.2, -5.2, -4.76, -4.08, -3.42, -3.45, -2.8, -2.83, -2.33, -1.69, -1.16, -0.59, 0.0, 0.0, 0.58, 0.58, 1.16, 1.73, 2.23, 3.14, 3.35, 3.43, 4.74, 5.06, 5.06, 4.42, 4.26, 4.26, 3.27, 2.69, 3.32, 2.47, 1.69, 0.83, 0.0, 0.0, 0.0, 0.81, 1.44, 1.45, 2.18, 3.47, 4.4, 4.23, 4.13, 4.07, 3.32, 3.32, 3.32, -10.01, -10.01, -10.01, -10.01, -10.01, -10.01, -10.01, -9.72, -9.72, -9.72, -9.46, -9.46, -9.48, -9.48, -9.48, -9.19, -9.19, -9.5, -9.21, -9.21, -8.87, -8.87, -8.87, -8.59, -8.59, -8.59, -8.59, -8.86, -8.86, -8.86, -8.49, -8.49, -8.22, -8.22, -7.96, -7.57, -7.85, -7.59, -7.59, -7.59, -7.19, -6.92, -6.94, -6.53, -6.29, -6.29, -5.86, -5.86, -5.64, -5.2, -5.2, -4.57, -4.08, -3.91, -3.45, -3.3, -2.83, -2.3, -1.78, -1.71, -1.09, -0.56, 0.0, 0.0, 0.58, 0.53, 1.07, 1.76, 2.51, 2.84, 2.84, 4.89, 4.74, 4.75, 3.55, 3.4, 2.54, 2.69, 1.67, 1.75, 1.68, 0.79, 0.83, 0.0, 0.0, 0.79, 1.61, 2.39, 2.12, 2.91, 2.87, 3.6, 3.6, 4.48, 4.32, 4.4, 4.4, 4.4, -10.01, -10.01, -10.01, -10.01, -10.01, -10.01, -10.01, -9.72, -9.72, -9.46, -9.46, -9.46, -9.17, -9.48, -9.48, -9.48, -9.19, -9.5, -9.21, -8.87, -8.87, -8.87, -8.87, -8.59, -8.59, -8.59, -8.22, -8.49, -8.49, -8.49, -8.49, -8.22, -8.22, -8.22, -7.96, -7.85, -7.85, -7.59, -7.59, -7.59, -7.19, -7.19, -6.94, -6.53, -6.29, -6.29, -5.86, -5.64, -5.64, -5.2, -4.76, -4.57, -4.08, -3.91, -3.45, -3.45, -2.97, -2.83, -2.33, -1.69, -1.16, -0.59, 0.0, 0.0, 0.0, 0.0, 0.59, 1.73, 2.22, 2.23, 2.84, 3.43, 3.48, 3.91, 2.82, 1.84, 1.75, 1.67, 1.67, 1.75, 0.85, 0.79, 0.83, 0.81, 0.79, 1.6, 2.34, 3.16, 3.3, 3.17, 3.14, 3.23, 3.47, 3.6, 3.68, 3.91, 3.91, 3.91, -10.01, -10.01, -10.01, -10.01, -10.01, -10.01, -10.01, -9.72, -9.72, -9.46, -9.46, -9.46, -9.17, -9.48, -9.48, -9.48, -9.19, -9.5, -9.21, -8.87, -8.87, -8.87, -8.87, -8.59, -8.59, -8.59, -8.22, -8.49, -8.49, -8.49, -8.49, -8.22, -8.22, -8.22, -7.96, -7.85, -7.85, -7.59, -7.59, -7.59, -7.19, -7.19, -6.94, -6.53, -6.29, -6.29, -5.86, -5.64, -5.64, -5.2, -4.76, -4.57, -4.08, -3.91, -3.45, -3.45, -2.97, -2.83, -2.33, -1.69, -1.16, -0.59, 0.0, 0.0, 0.0, 0.0, 0.59, 1.73, 2.22, 2.23, 2.84, 3.43, 3.48, 3.91, 2.82, 1.84, 1.67, 1.67, 1.67, 1.75, 0.85, 0.85, 0.8, 0.83, 0.81, 1.59, 3.16, 4.01, 3.98, 3.95, 4.0, 3.87, 3.96, 3.96, 3.32, 3.32, 3.32, 3.32]}]